GFSSE_250_rhum_000.txt.gz
RH
51 68 94 74 48 40 42 36 34 31 22 20 18 18 18 19 17 17 18 18 18 17 16 18 21 22 22 19 19 18 19 20 22 23 20 19 17 12 13 13 16 17 22
61 62 92 78 58 55 56 61 63 50 32 26 22 22 20 22 22 21 21 21 20 19 20 20 20 18 18 19 20 19 23 23 22 24 22 18 14 12 10 16 20 24 27
66 56 100 95 78 69 75 75 82 69 55 45 39 32 26 22 21 20 20 18 18 21 23 24 23 23 28 26 19 17 18 21 21 21 18 17 13 15 37 44 44 41 45
90 81 100 96 78 81 93 98 91 77 64 48 36 29 23 19 16 16 16 17 20 22 22 24 23 23 22 22 24 17 16 19 22 22 20 14 17 38 76 73 74 72 80
100 95 92 100 100 100 100 100 99 99 75 68 64 53 24 19 20 18 19 25 26 30 27 24 22 21 24 24 24 19 20 24 25 22 16 13 27 85 100 77 74 65 72
100 100 93 100 100 99 100 100 94 90 97 98 63 30 21 20 20 20 19 17 23 26 26 22 22 19 22 16 17 19 24 26 24 18 16 15 44 100 100 76 80 73 92
100 100 100 100 100 100 99 88 86 74 70 88 53 29 22 20 20 18 18 18 17 21 24 22 15 17 16 14 15 22 29 30 20 15 16 21 69 100 100 70 90 100 100
100 100 100 100 98 100 96 90 99 86 81 78 52 34 25 22 22 20 20 21 19 19 20 14 13 13 16 25 31 34 36 25 15 12 15 38 75 100 97 94 100 100 100
90 96 85 88 93 99 100 98 73 65 83 83 54 38 24 20 21 22 22 22 23 22 15 14 15 20 35 44 53 43 26 15 12 12 19 57 100 100 100 95 100 100 100
100 100 87 74 95 100 100 78 85 100 88 46 34 28 24 25 28 24 28 30 25 16 15 19 23 43 54 55 50 30 17 13 11 10 33 92 100 100 99 100 97 100 100
76 94 95 95 100 88 56 70 95 90 60 42 31 30 31 36 33 33 30 21 19 16 21 29 52 63 58 51 31 20 15 13 12 12 37 97 100 100 100 100 100 100 100
75 68 67 54 98 100 100 92 76 62 48 38 33 36 45 42 38 34 21 18 17 19 37 57 61 58 40 28 23 18 14 15 14 13 25 80 100 100 100 98 100 100 100
96 98 82 54 44 58 73 64 59 52 45 43 36 46 47 40 38 24 18 17 19 26 54 61 48 31 26 26 20 16 13 16 17 14 20 52 97 97 86 74 97 100 100
100 100 92 86 70 59 60 64 62 54 49 49 45 45 44 40 26 20 19 23 25 46 58 45 33 25 25 23 18 14 14 16 18 16 12 40 89 84 98 100 100 100 100
74 95 100 89 82 84 76 61 53 51 51 47 59 46 46 32 20 22 31 45 65 56 43 32 28 24 27 23 20 16 13 16 19 23 15 12 41 75 93 97 99 100 100
78 85 81 98 100 99 86 61 61 49 54 66 59 54 28 19 24 31 46 77 66 39 24 21 22 27 31 27 27 22 17 15 16 20 22 21 16 28 67 85 90 100 100
93 100 80 98 96 82 72 55 51 50 64 64 53 31 18 22 30 49 83 76 47 27 24 24 25 29 31 31 32 34 29 20 19 18 17 19 24 26 40 77 74 87 78
100 100 84 82 83 84 57 51 58 65 62 54 28 17 25 41 57 78 82 74 52 47 34 29 27 27 28 27 28 30 34 38 33 24 22 21 18 20 33 61 71 79 84
100 100 100 89 79 82 75 62 70 68 52 21 18 24 39 74 84 95 88 80 76 65 52 42 38 37 37 35 33 30 29 33 38 45 44 40 36 31 30 31 37 44 49
100 100 97 84 81 91 90 77 71 39 16 17 21 38 74 87 96 98 88 77 70 65 60 53 48 43 47 48 48 48 47 43 38 35 36 43 50 58 60 60 59 58 57
69 86 81 75 86 100 83 60 27 15 19 20 25 72 86 83 77 81 77 60 55 52 45 41 38 33 30 35 39 40 39 41 46 50 49 48 44 43 43 43 46 49 53
51 66 66 73 78 53 33 19 16 17 20 20 45 77 60 38 40 38 37 32 22 14 11 12 13 12 12 12 13 13 13 13 14 15 15 15 16 20 24 30 44 51 52
46 62 74 54 32 22 20 19 22 26 25 39 37 30 21 17 16 16 17 19 21 20 18 18 18 19 19 16 16 15 14 15 15 16 15 15 14 15 15 16 18 18 19
69 73 43 27 24 24 24 32 40 35 31 27 23 22 20 20 19 20 22 20 21 20 18 18 17 18 17 16 15 14 14 14 14 20 25 24 23 25 29 37 39 38 36
73 48 31 27 28 36 37 34 32 28 25 24 24 24 22 21 21 24 23 22 20 19 18 17 17 15 14 14 14 14 13 12 10 9 10 17 22 27 32 35 37 42 46
58 36 32 29 31 32 31 29 26 24 24 24 24 24 28 28 24 24 23 21 19 18 18 16 14 13 14 12 12 12 12 11 11 12 14 14 14 23 24 35 48 50 51

GFSSE_250_rhum_003.txt.gz
RH
57 54 62 67 53 67 86 71 45 39 37 42 48 32 21 20 19 18 18 18 18 18 18 17 17 16 16 17 18 17 17 17 18 20 20 19 20 22 22 22 21 19 17
55 56 54 49 49 62 90 74 58 51 47 58 58 62 40 29 30 28 24 24 21 19 16 15 15 14 16 17 20 22 23 22 26 26 20 18 18 21 22 23 22 18 16
57 58 56 49 45 57 100 94 73 57 64 66 73 58 55 41 33 36 36 22 18 17 17 16 16 17 19 24 27 24 25 24 23 22 24 22 17 18 20 22 21 18 15
90 69 58 57 53 54 91 100 82 77 88 97 90 78 78 68 69 60 39 23 20 19 18 18 17 18 22 28 29 28 24 22 21 23 22 24 20 18 20 20 19 16 15
100 92 73 63 60 60 71 100 100 100 100 90 88 100 84 66 72 52 35 24 22 19 19 19 17 18 17 18 21 21 20 16 18 21 17 20 20 23 22 22 19 18 49
99 100 100 73 65 71 74 65 98 100 99 63 78 85 71 78 76 56 41 29 25 22 21 18 17 16 19 17 17 17 15 14 16 18 18 20 24 26 25 20 18 30 85
83 96 100 100 81 93 93 75 88 100 100 100 100 100 92 91 70 61 52 38 27 21 21 19 19 19 23 22 18 14 12 12 16 19 27 31 34 31 24 18 26 84 100
94 91 98 100 96 97 100 93 88 71 92 100 100 94 78 72 73 50 35 29 25 22 22 26 25 21 19 19 15 15 18 21 24 29 38 43 36 26 18 25 32 86 100
100 100 100 100 88 93 100 100 100 98 100 100 100 67 56 72 84 56 34 29 26 22 26 27 26 18 18 17 19 24 30 37 42 52 52 40 25 16 14 20 41 88 100
100 100 100 100 92 80 89 95 82 86 100 100 76 55 79 73 50 39 35 33 28 29 24 32 23 16 17 19 28 44 48 53 52 52 42 24 18 15 17 23 52 82 100
100 94 84 94 100 100 100 100 100 96 94 98 76 65 70 57 54 44 40 38 35 23 30 26 17 16 19 32 51 57 60 52 39 31 25 21 17 14 14 19 73 98 100
92 86 85 84 82 82 86 85 75 66 65 90 94 76 62 51 54 46 43 40 37 37 31 20 18 19 24 51 54 44 34 30 28 25 20 17 14 15 13 19 69 100 100
99 88 96 91 91 68 65 70 70 62 59 52 50 42 54 44 44 46 46 53 41 39 25 17 27 36 52 52 38 33 30 28 27 22 18 16 15 17 17 15 39 88 100
100 100 100 100 92 84 78 71 65 72 64 57 55 57 54 61 42 47 60 54 38 31 20 28 48 56 45 30 24 28 33 29 24 23 21 16 16 19 21 17 18 34 84
97 91 100 99 87 78 78 82 77 78 81 74 69 70 72 60 46 42 53 51 35 20 30 50 59 44 29 27 27 30 32 32 31 32 28 21 17 18 21 22 19 16 42
100 93 94 100 98 99 84 79 89 91 82 80 76 78 66 67 46 45 48 31 19 31 47 69 62 49 35 28 27 26 28 29 31 32 33 34 29 20 20 20 22 22 16
100 100 100 93 91 86 80 76 68 72 74 62 70 67 73 66 46 54 35 20 32 64 75 79 67 61 50 42 34 34 34 33 30 27 27 32 37 38 32 25 22 23 22
87 100 100 100 100 100 100 97 72 92 88 71 74 83 86 64 59 27 18 35 60 85 87 85 73 74 68 61 54 44 40 37 38 39 39 41 37 32 35 42 44 39 32
46 70 96 99 100 100 100 100 91 81 88 86 89 90 83 69 36 16 26 63 81 99 98 87 73 59 54 50 45 41 38 34 32 34 38 38 36 39 42 43 41 37 38
38 35 39 49 66 96 100 100 100 100 95 82 78 84 74 43 15 18 50 69 56 57 64 46 34 25 19 16 16 14 13 13 13 13 13 13 13 14 14 17 22 29 37
33 32 32 39 52 79 85 100 100 99 87 86 89 58 24 16 20 27 59 34 31 27 23 22 21 21 22 22 22 20 20 20 20 20 19 18 16 16 15 14 14 14 14
32 31 27 39 68 80 94 96 99 96 93 62 37 18 16 21 28 39 24 17 18 20 22 24 23 21 20 19 18 18 19 16 16 17 16 16 15 15 15 14 15 15 16
29 26 23 24 39 77 89 92 84 52 32 23 18 22 32 36 30 26 25 22 22 23 25 24 22 22 19 18 21 22 20 22 23 23 20 17 16 16 16 16 17 16 14
28 26 23 20 30 62 82 60 28 23 21 22 38 43 38 29 26 27 26 27 26 25 25 24 22 22 21 21 21 19 17 16 18 20 28 28 26 26 26 25 24 24 25
29 30 24 23 39 74 60 28 26 30 35 42 39 34 30 27 28 28 26 26 27 25 23 23 23 22 22 22 22 20 16 14 13 12 13 18 22 25 26 26 27 27 29
29 33 24 25 61 66 36 28 31 39 37 35 34 28 28 29 29 30 28 30 30 26 24 24 21 21 21 22 23 19 15 15 14 12 10 10 12 21 22 26 29 31 32

GFSSE_250_rhum_006.txt.gz
RH
55 57 56 52 53 75 85 80 61 74 84 71 47 43 50 55 57 45 28 30 31 31 27 25 22 19 17 15 13 13 12 12 13 14 16 17 17 20 21 21 21 18 18
48 59 57 58 54 54 57 55 51 58 95 75 63 53 46 58 72 54 51 39 32 28 28 26 23 18 18 15 14 16 15 15 14 14 18 22 24 24 24 22 23 22 20
64 54 61 57 58 53 49 47 47 48 87 100 75 56 50 80 89 56 46 39 34 34 30 25 24 22 23 19 18 17 17 16 16 17 19 24 23 22 21 21 23 22 24
86 69 56 64 66 58 57 55 51 55 64 100 89 63 96 81 70 59 58 45 41 45 38 37 33 30 26 23 20 18 17 16 16 17 16 16 18 19 18 21 20 22 24
94 85 71 57 52 57 62 54 50 50 63 87 89 86 99 68 73 88 59 49 51 55 46 39 35 26 22 19 18 20 21 21 17 17 19 17 14 16 16 21 26 26 28
100 97 87 70 67 63 59 58 54 49 55 70 63 66 100 100 100 100 100 89 68 53 44 39 36 26 24 24 19 21 22 19 15 16 17 14 13 15 20 24 29 35 33
100 100 94 91 93 86 81 73 76 61 57 68 45 40 93 98 100 100 93 75 43 45 60 51 32 29 26 21 18 21 21 15 15 15 16 16 23 28 29 34 40 38 37
100 100 100 99 90 90 95 81 76 82 75 91 76 63 66 71 94 100 76 54 43 53 43 37 37 31 24 21 22 23 16 14 15 18 24 28 31 44 44 43 48 45 37
100 100 100 100 100 95 90 93 91 83 87 91 100 100 100 100 100 100 78 66 61 52 43 38 28 28 31 32 32 22 13 15 18 34 44 52 55 54 55 54 49 37 24
100 100 100 100 100 100 100 96 95 92 81 80 85 97 98 100 100 99 84 71 53 44 38 34 30 32 35 28 28 15 19 19 33 52 55 53 44 39 36 30 26 23 19
100 100 100 98 99 100 100 100 100 100 92 84 100 82 98 79 70 70 78 46 44 37 42 34 31 34 40 32 17 21 26 39 52 47 36 30 26 27 26 22 20 18 16
100 100 100 97 94 99 100 100 100 92 90 94 98 100 96 77 62 59 51 41 46 46 43 33 31 33 38 20 23 39 45 45 37 28 25 27 28 26 22 19 17 16 17
100 100 100 99 98 97 98 100 100 99 81 93 94 84 79 73 63 48 56 58 58 52 47 40 35 34 24 26 48 50 31 30 27 23 25 28 28 28 27 24 18 17 19
97 100 100 100 100 96 95 100 93 91 98 92 79 69 68 68 58 70 75 69 59 60 58 39 43 28 26 43 65 48 40 32 29 27 26 27 29 30 30 31 29 21 18
34 69 100 100 100 100 100 100 100 87 87 94 90 84 84 75 79 73 79 66 53 60 50 49 30 24 45 62 67 61 55 56 55 46 38 36 36 33 30 29 30 33 30
22 26 56 91 100 98 93 97 97 93 81 84 85 87 81 80 80 85 73 55 48 63 64 40 20 37 63 67 60 62 58 55 54 55 52 47 43 41 41 41 40 38 35
22 24 22 36 65 100 96 79 77 89 80 93 96 98 83 79 89 98 69 63 55 68 50 20 41 67 70 71 67 61 52 47 39 34 31 29 25 20 18 18 22 30 37
20 21 23 24 37 72 89 93 80 62 66 74 90 92 83 100 100 81 70 71 66 63 26 22 51 56 66 66 44 28 21 18 17 17 16 16 16 16 16 15 14 13 12
24 24 29 36 32 64 97 90 100 82 83 90 98 100 100 100 100 84 89 79 68 32 18 41 36 38 36 27 24 22 21 20 19 18 18 18 18 18 17 16 17 17 17
25 25 30 36 32 28 46 82 93 98 100 100 100 100 100 100 100 91 88 79 31 18 34 33 18 21 23 24 22 23 23 22 21 21 23 24 23 22 20 20 18 16 16
26 25 28 34 33 33 29 29 26 32 42 49 82 87 100 100 95 78 72 30 17 29 28 20 21 23 25 25 27 25 25 25 25 26 26 27 26 26 23 20 19 18 16
29 28 31 31 32 40 34 27 28 42 92 100 100 100 100 90 80 58 23 19 31 32 26 25 26 25 28 28 28 26 25 23 24 25 24 25 24 24 23 20 18 16 15
32 33 32 34 29 42 28 27 37 60 85 100 100 95 78 55 33 21 28 39 31 27 29 28 29 28 29 27 26 25 24 29 32 32 28 26 24 21 18 16 15 14 13
29 36 36 35 29 33 28 27 29 32 75 80 78 44 31 23 36 44 44 33 29 29 31 30 29 30 30 29 26 25 27 28 28 28 31 30 28 23 19 18 17 17 17
30 32 38 40 30 32 29 27 24 42 54 69 36 24 27 45 49 39 32 30 28 29 31 32 34 36 33 31 29 29 25 24 22 17 21 24 22 19 18 18 21 23 26
35 39 39 34 30 31 29 27 29 46 68 44 27 33 43 39 35 33 31 31 32 32 31 34 38 37 35 33 32 28 27 25 24 22 21 18 16 19 18 23 30 33 34

GFSSE_250_rhum_009.txt.gz
RH
67 65 55 48 46 45 49 50 57 61 69 63 58 76 76 63 49 51 55 57 68 56 49 35 31 30 28 25 23 23 23 21 19 18 17 17 17 16 15 15 16 15 19
57 72 66 56 53 49 52 52 59 64 59 61 50 61 65 69 66 57 67 83 77 53 42 42 37 30 27 26 25 23 22 20 18 17 17 15 17 16 14 15 19 18 19
56 65 76 68 61 52 42 53 59 54 51 49 48 48 91 93 85 60 91 70 66 52 41 37 32 29 27 27 26 24 23 22 20 18 17 18 19 16 17 16 17 18 17
95 71 71 76 75 65 57 49 53 55 57 51 49 52 53 62 74 67 99 74 68 57 55 53 41 55 40 29 30 28 28 22 18 17 17 16 18 16 14 14 17 18 16
100 100 93 78 90 86 67 58 54 46 43 45 45 47 56 62 64 53 93 100 91 88 91 87 73 47 34 30 28 26 23 20 19 22 23 22 17 11 12 14 14 15 14
100 100 100 97 96 94 91 78 62 51 43 38 40 44 42 58 65 48 53 86 100 99 99 90 67 46 46 37 28 28 24 22 22 25 25 19 12 13 15 16 18 20 23
100 100 100 100 100 100 97 95 93 77 58 47 40 42 47 36 50 43 39 50 48 83 99 85 63 71 53 34 30 31 24 25 26 31 18 15 15 16 19 30 27 37 35
100 100 100 100 100 100 100 100 100 92 81 66 60 50 46 46 44 54 63 64 62 95 100 93 83 56 36 33 32 33 23 23 30 20 16 19 20 30 44 54 62 58 57
89 100 100 100 100 100 100 100 100 100 99 93 87 80 74 66 54 61 79 92 100 95 81 75 78 45 36 38 44 38 29 25 24 16 23 29 38 53 52 42 36 38 41
79 100 100 100 100 100 100 100 100 99 100 97 90 92 91 83 77 70 89 79 99 76 63 64 53 42 40 45 51 41 32 29 19 21 40 50 51 42 31 29 28 28 28
87 99 100 100 100 100 100 100 100 100 100 100 100 100 100 98 98 100 100 97 92 88 73 58 47 46 52 50 47 41 36 27 23 36 42 30 26 26 26 26 28 25 24
48 74 75 83 98 100 100 100 100 100 100 100 100 100 100 100 95 93 96 97 93 85 77 65 55 54 57 45 44 44 34 20 31 52 37 34 29 27 28 30 31 31 30
29 68 94 86 95 96 95 100 100 100 100 100 100 100 100 100 95 88 81 78 76 72 82 73 60 58 50 43 46 37 23 26 49 56 50 53 54 53 45 40 39 37 34
23 26 32 84 86 83 82 82 82 88 92 92 84 94 94 100 98 98 99 91 91 91 84 68 60 51 56 46 51 29 23 49 57 56 52 51 52 52 51 50 48 46 45
23 22 25 33 93 100 97 84 85 82 79 76 81 81 84 92 97 86 88 100 92 84 77 65 60 61 63 56 47 18 35 55 55 53 49 43 38 32 30 29 26 22 18
19 22 21 24 26 45 81 96 100 91 94 85 78 75 76 86 100 91 81 81 89 96 82 67 67 70 70 57 29 27 47 53 44 34 25 18 16 15 14 15 16 16 16
17 18 20 21 21 23 25 31 45 66 84 82 73 66 82 86 100 89 89 86 95 97 93 72 80 82 74 56 21 30 36 39 25 21 19 20 19 18 18 18 18 18 18
17 17 17 20 22 21 19 19 22 31 42 65 63 62 65 62 57 61 82 83 83 95 97 90 99 85 63 29 25 19 16 19 19 19 21 22 23 22 22 23 23 22 22
20 18 18 19 21 23 22 23 29 21 29 43 58 75 61 50 54 65 89 100 100 100 100 100 94 73 36 26 21 17 17 22 22 24 25 26 26 25 24 24 24 23 23
24 20 19 22 23 24 23 21 21 23 26 42 86 98 99 99 100 99 100 100 100 100 100 99 85 41 28 24 22 22 21 27 26 28 29 26 25 24 24 24 23 23 24
26 24 21 20 24 26 24 22 29 48 52 40 31 35 33 45 64 79 93 98 100 100 100 80 43 28 31 26 25 24 25 27 27 29 28 26 26 26 25 27 27 24 22
31 26 27 25 23 26 26 29 27 35 55 47 28 25 29 54 93 99 100 100 100 96 65 30 26 34 28 27 26 27 28 30 32 34 33 29 27 27 27 28 27 26 21
31 32 28 28 27 26 40 64 40 28 44 46 30 27 45 74 100 100 99 82 55 35 29 35 35 32 28 28 29 31 36 40 41 41 37 33 32 31 28 25 25 24 22
29 33 32 30 32 38 40 74 42 26 38 32 28 29 32 54 88 88 58 31 32 39 42 42 34 30 27 28 30 36 36 40 45 42 42 39 34 34 33 29 27 27 24
29 32 37 33 36 52 32 49 42 32 38 30 28 25 28 58 74 51 30 43 46 48 41 34 31 28 29 32 34 33 31 37 40 37 36 34 35 32 28 27 27 26 24
34 35 37 37 35 39 53 45 38 33 30 31 28 26 41 59 63 33 37 48 42 37 36 33 31 33 36 37 35 33 34 38 37 33 29 30 28 27 28 28 27 26 25

GFSSE_250_rhum_012.txt.gz
RH
54 64 62 40 52 53 49 55 45 41 41 41 47 48 51 51 46 51 67 59 54 60 67 82 66 45 42 41 37 32 28 28 24 20 20 21 21 18 16 15 14 15 16
69 52 54 50 46 55 59 58 58 43 45 51 45 43 55 63 48 42 47 52 63 67 91 77 56 41 33 36 35 35 42 35 24 24 23 20 18 16 16 18 16 16 16
66 56 50 55 51 59 70 61 60 60 53 47 51 53 44 46 44 43 50 69 68 76 87 75 64 60 53 52 52 50 49 38 30 27 24 26 20 20 19 19 20 18 16
64 62 69 74 47 48 70 76 67 66 64 60 63 58 53 43 48 57 59 57 62 66 89 94 86 76 66 72 86 68 50 42 37 26 26 26 21 20 23 22 18 15 13
57 73 67 62 80 52 66 73 78 72 69 69 65 64 59 53 49 48 52 52 53 49 51 67 97 95 92 66 65 55 56 48 31 28 28 31 28 20 20 17 14 14 14
44 48 55 78 74 80 68 83 89 84 77 76 72 69 66 50 45 42 42 43 53 48 40 42 39 40 39 50 73 86 54 38 36 35 35 31 27 25 19 14 17 17 17
46 56 54 67 85 100 95 97 96 94 92 85 74 74 70 62 53 46 40 41 47 48 55 44 49 49 72 98 84 60 52 42 41 36 33 34 30 24 16 17 23 30 47
39 53 54 80 82 100 100 100 100 100 100 97 93 81 75 73 75 65 57 50 49 50 49 58 91 100 95 81 70 61 46 43 45 38 31 31 30 23 21 35 47 55 55
25 31 40 66 95 97 100 100 100 100 100 100 99 96 88 81 74 72 70 66 67 66 67 67 96 94 91 81 68 68 53 49 46 36 38 32 26 21 29 42 37 39 32
20 21 29 35 75 100 100 100 100 100 100 100 100 100 100 99 93 81 77 75 82 88 93 100 100 100 99 91 86 74 55 48 42 38 34 29 22 23 36 32 30 26 28
20 19 20 24 27 76 100 100 100 100 100 100 100 100 100 100 100 100 98 100 100 95 94 100 97 98 91 82 76 68 57 52 46 42 34 26 25 38 45 44 39 36 32
19 18 19 22 21 27 50 79 100 97 100 100 100 100 98 93 100 100 100 100 100 100 100 88 77 80 76 78 82 67 64 53 54 42 37 26 32 53 55 47 46 49 46
16 16 17 18 20 21 24 45 78 100 100 100 99 92 100 99 96 100 100 100 100 100 100 100 91 90 95 91 77 72 64 62 57 46 34 31 46 62 55 47 44 43 42
13 15 15 17 20 26 32 58 89 87 100 100 100 100 100 100 100 100 100 92 89 86 89 96 98 97 84 78 80 77 71 64 60 52 31 32 50 50 40 35 25 18 15
14 14 14 15 18 20 27 46 83 78 66 67 68 90 87 86 82 78 82 80 76 79 75 92 98 84 78 77 84 78 83 72 68 56 26 39 48 30 19 17 18 18 19
15 14 14 14 14 17 21 24 29 48 80 77 71 66 70 66 67 70 69 74 78 79 69 88 84 85 79 86 82 71 89 90 70 42 22 29 28 17 20 22 22 22 22
22 21 17 14 14 15 17 21 23 26 32 72 83 94 87 87 78 79 82 93 78 72 71 66 75 84 94 75 72 93 99 93 68 31 22 16 16 19 22 23 22 22 22
23 24 23 18 15 15 17 19 22 22 23 24 26 36 37 38 39 38 44 58 62 61 55 51 59 72 94 98 100 100 100 95 50 29 18 17 19 19 22 24 24 25 24
20 22 25 23 19 16 18 19 19 22 22 22 21 21 22 20 18 24 49 59 66 94 91 92 86 94 100 100 100 100 97 65 31 23 21 22 21 22 26 25 27 27 27
24 23 22 24 23 20 17 17 23 24 34 30 27 25 21 17 20 33 65 88 96 100 100 100 100 100 100 100 100 99 70 41 27 24 26 24 25 27 29 29 29 30 30
30 27 21 18 25 24 21 17 18 35 47 47 29 22 21 28 28 28 28 29 29 40 59 76 93 100 100 96 94 65 37 30 29 28 29 27 29 30 29 29 31 33 33
34 33 26 22 20 24 22 20 32 58 73 72 50 26 25 34 42 38 29 29 48 80 100 100 100 100 92 75 46 29 30 32 29 33 31 30 29 30 31 30 31 35 33
35 34 28 25 21 21 24 24 28 51 64 60 57 37 27 30 50 42 30 31 60 77 97 100 84 69 39 31 32 40 38 32 31 30 28 28 28 29 28 29 34 34 31
39 35 29 27 24 22 24 26 28 37 49 55 55 44 38 36 42 33 28 30 38 55 90 71 46 30 33 49 51 42 34 31 33 37 39 35 34 31 32 36 36 33 31
40 40 33 29 25 23 25 30 46 71 53 52 60 54 51 38 39 30 28 27 28 46 63 45 35 45 56 41 37 35 33 33 35 36 40 44 38 39 36 35 34 32 30
52 47 38 34 27 26 26 31 48 68 77 56 53 72 62 39 40 32 30 27 30 44 55 35 39 43 42 39 37 37 39 39 38 38 37 36 36 38 38 40 40 36 34

GFSSE_250_rhum_015.txt.gz
RH
39 57 56 42 30 29 22 21 25 36 43 45 36 29 28 33 40 38 40 45 42 40 46 52 59 72 94 77 62 48 38 34 40 43 42 43 42 34 30 24 21 19 20
45 41 51 68 51 46 49 31 22 22 33 41 49 45 45 38 35 50 51 54 49 40 40 38 56 67 85 72 53 59 46 43 48 66 69 60 40 42 32 25 23 20 20
58 50 37 43 62 59 42 37 37 30 27 34 45 41 45 46 43 37 36 46 42 37 40 41 41 51 73 80 84 73 58 47 66 69 56 48 48 33 30 26 23 22 22
49 45 44 48 50 48 44 49 42 38 33 34 49 50 42 48 54 53 50 44 46 45 48 49 49 48 53 68 73 96 100 65 36 33 59 67 41 36 32 28 24 21 22
33 38 39 45 49 54 62 55 58 53 46 40 55 63 64 62 65 64 52 46 50 49 52 53 51 49 52 50 46 45 41 35 48 80 74 52 44 39 33 26 22 26 23
29 35 36 35 46 59 65 58 72 78 75 52 46 70 78 74 70 73 69 61 56 50 49 47 43 47 53 50 49 40 53 60 92 77 65 61 52 42 31 28 26 25 20
29 28 26 28 28 38 64 75 76 87 84 83 72 68 83 84 83 82 80 75 68 60 56 53 49 44 41 44 48 53 97 95 89 81 76 68 57 44 34 31 28 27 20
31 37 36 30 31 37 58 62 77 87 100 98 92 93 94 93 90 92 92 87 82 74 61 59 64 60 60 62 66 67 97 100 100 88 84 64 57 44 40 34 28 25 23
32 35 48 53 45 45 54 70 78 100 100 100 100 100 100 100 100 96 97 95 88 84 76 72 72 69 59 82 90 100 100 98 98 81 80 65 62 46 43 33 30 24 32
33 36 39 45 44 41 44 59 100 100 100 100 100 100 100 100 100 100 100 100 100 100 100 93 93 87 97 88 87 95 77 76 74 72 76 65 58 49 44 35 30 24 48
29 32 33 31 33 33 36 37 41 76 100 100 100 100 100 100 100 100 100 100 100 100 100 100 78 100 100 100 99 98 82 87 85 84 80 64 57 53 45 40 28 35 60
21 21 22 20 20 19 19 19 21 22 45 64 95 100 100 99 88 100 100 100 100 100 100 100 100 100 100 100 100 100 98 90 81 76 66 62 59 57 58 44 27 46 58
14 14 15 15 16 18 17 18 19 18 22 31 45 99 100 100 100 93 98 97 100 100 100 100 99 100 100 100 93 83 87 88 83 72 64 72 71 56 59 45 36 53 53
14 13 12 11 10 12 16 18 19 20 22 23 25 28 58 99 98 100 100 100 100 100 100 100 100 100 90 80 82 80 72 85 80 78 75 80 75 65 69 41 35 50 30
18 18 17 14 12 11 13 16 18 19 22 21 22 25 40 42 87 88 100 100 100 100 96 92 84 76 66 66 63 76 73 67 74 76 76 80 79 87 74 36 34 32 17
17 18 18 18 15 12 12 13 15 16 18 22 28 37 47 65 84 88 83 79 81 69 68 64 63 66 72 72 69 67 64 62 70 82 82 98 90 99 78 34 27 21 19
23 21 20 19 17 15 13 13 17 16 16 18 23 27 30 41 58 82 89 92 79 67 60 58 79 72 71 67 66 74 58 60 71 100 100 100 100 96 66 30 19 19 20
23 23 22 20 19 18 15 15 14 18 18 16 18 22 23 24 27 28 40 52 62 71 65 42 41 44 46 57 79 78 94 90 98 100 100 100 100 81 49 24 20 22 24
27 24 24 24 20 18 16 19 18 25 25 32 26 20 19 24 24 23 22 20 22 18 16 19 49 79 97 100 100 100 100 100 100 100 100 100 85 67 36 22 24 27 28
32 31 29 27 25 20 17 17 20 25 28 23 29 21 19 22 22 22 21 21 23 18 21 28 35 53 55 63 71 84 98 97 95 86 84 81 68 38 30 24 28 28 30
34 31 33 32 31 28 22 17 16 20 24 29 36 24 20 20 22 25 30 26 22 25 29 32 25 24 24 46 76 88 86 91 88 80 68 41 38 31 31 29 30 30 29
46 35 31 34 32 29 30 23 20 24 32 34 40 32 26 27 33 38 42 28 24 27 33 39 29 24 30 43 56 67 84 73 57 36 33 41 37 36 33 31 30 29 29
65 53 35 37 34 30 32 29 25 25 27 30 31 41 43 43 41 43 56 48 28 28 33 35 28 26 31 30 54 71 56 34 36 50 52 48 43 37 34 31 30 32 32
99 71 48 45 44 31 32 31 28 25 26 29 31 39 57 57 63 63 69 58 36 29 38 32 26 25 24 29 59 52 39 39 56 51 41 38 36 33 32 34 33 31 29
81 71 66 51 49 43 34 34 32 28 26 27 31 31 32 63 77 77 77 65 47 40 44 37 27 24 24 36 59 48 34 32 35 39 41 42 43 43 42 40 37 35 33
86 90 84 72 57 47 40 37 36 31 28 25 31 35 38 50 77 86 80 78 67 54 48 42 28 25 26 36 50 48 40 35 32 33 38 41 44 45 37 34 39 42 44

GFSSE_250_rhum_018.txt.gz
RH
14 14 19 36 35 28 22 19 20 20 21 19 24 36 40 39 31 26 28 34 40 41 39 43 40 40 41 39 41 41 52 52 46 41 34 32 36 37 58 44 46 44 36
23 16 15 24 33 33 35 28 18 17 20 17 17 20 28 37 39 37 31 29 27 34 42 52 50 43 37 38 39 40 59 53 54 44 45 43 38 34 27 44 62 45 39
26 26 18 26 29 24 20 23 27 33 29 24 22 22 19 20 33 39 43 45 44 39 35 33 41 38 36 42 43 42 39 48 62 65 65 79 47 29 49 82 58 50 43
26 26 26 33 33 29 33 28 27 34 41 40 29 22 26 26 24 34 40 41 53 53 48 45 40 40 41 42 47 46 44 46 50 46 52 43 39 56 91 78 64 53 44
33 30 28 29 28 30 33 28 27 31 43 52 53 50 43 42 39 33 46 54 56 71 69 59 53 45 46 44 46 42 39 44 44 49 59 67 84 80 83 82 68 57 45
34 34 34 31 32 28 28 38 37 40 43 48 56 63 64 68 58 53 48 61 72 73 76 73 68 62 60 52 46 40 39 41 43 42 51 72 100 100 96 81 73 56 44
34 32 32 34 34 33 37 38 38 49 56 61 62 81 89 81 94 83 74 71 75 86 83 83 82 79 76 66 59 53 54 53 64 69 78 100 99 97 78 59 56 52 45
38 36 31 29 30 29 30 32 37 34 46 71 78 89 93 90 97 92 87 91 88 88 90 89 90 90 89 81 64 67 74 70 64 90 86 84 83 65 67 67 71 53 47
36 36 32 29 26 28 27 30 38 34 37 39 66 100 100 99 99 100 100 99 97 98 100 100 100 97 95 89 81 82 82 81 99 100 94 84 88 72 82 78 68 48 52
26 26 26 24 21 22 27 30 32 40 42 40 53 66 89 100 100 100 100 100 100 100 100 100 100 100 100 100 98 95 97 93 100 100 100 100 96 94 88 80 57 54 54
24 21 22 19 19 22 25 28 31 38 43 55 52 52 59 89 100 100 100 100 100 100 100 100 100 100 100 100 100 100 100 100 100 100 100 91 87 83 85 77 68 53 58
24 22 21 23 24 26 29 31 36 39 45 48 51 49 48 48 56 94 100 100 100 100 100 100 98 100 100 100 100 100 100 100 100 100 88 74 60 68 72 80 71 61 65
19 17 16 17 19 19 20 20 24 28 29 30 30 30 32 32 36 34 64 100 98 94 100 100 100 100 100 100 100 100 100 100 100 95 78 62 63 65 68 77 75 74 70
15 13 13 13 12 14 14 19 16 16 17 19 20 19 18 18 20 21 24 30 58 81 88 100 100 97 100 100 100 100 100 90 66 63 62 57 62 70 67 76 85 78 95
14 13 12 12 12 15 16 17 18 17 16 17 17 18 18 18 20 20 21 22 25 31 39 68 95 98 100 100 97 92 84 62 54 60 69 69 63 76 82 77 85 94 100
15 16 15 14 15 15 14 20 20 22 25 23 22 18 18 20 19 18 20 25 33 43 47 54 50 75 87 82 83 67 56 57 45 71 79 70 70 71 70 98 100 100 100
17 20 19 17 14 13 15 20 23 24 26 19 18 14 15 18 19 18 21 27 29 33 44 58 68 70 75 77 73 60 58 55 46 44 62 87 84 100 100 100 100 100 100
22 21 24 22 20 19 17 18 22 23 22 26 21 16 16 16 16 16 18 24 26 26 25 26 27 28 28 26 30 30 25 43 72 85 91 100 100 100 100 100 100 100 96
36 28 28 27 24 23 21 19 19 22 22 20 21 20 19 15 15 16 16 20 22 23 25 25 24 22 20 20 17 20 29 40 60 68 68 89 93 98 92 88 84 84 80
67 59 38 33 32 26 25 31 24 20 24 25 26 26 28 34 31 21 18 18 20 21 23 23 23 20 18 18 20 24 23 24 25 28 49 63 79 87 86 84 73 54 48
79 58 41 36 38 36 35 27 26 25 25 28 25 20 25 27 31 38 27 28 31 21 20 21 21 22 20 22 26 31 28 26 26 29 36 51 60 57 45 34 31 38 48
100 100 71 69 53 43 36 43 33 33 29 33 32 24 21 24 29 28 29 27 28 21 22 21 27 36 26 22 24 30 29 26 22 22 31 43 42 36 32 41 45 48 45
100 100 100 72 47 54 42 44 38 38 36 33 33 35 31 29 30 29 29 29 37 34 34 34 42 39 41 28 26 25 22 24 24 23 25 31 40 34 38 48 50 46 42
77 96 100 99 92 75 65 67 45 50 40 36 34 32 34 28 26 29 34 31 40 48 56 52 50 56 57 46 29 32 28 23 23 24 23 34 40 34 32 33 35 36 35
49 74 95 100 98 99 86 86 72 51 55 47 37 31 38 34 28 26 29 30 33 56 66 70 79 79 74 60 44 44 39 28 24 26 30 29 38 41 37 34 33 32 32
52 49 75 91 85 83 89 92 90 70 62 59 44 36 40 38 31 28 27 30 34 38 64 83 92 89 83 72 58 51 52 42 32 30 30 39 46 47 41 43 43 44 44

GFSSE_250_rhum_021.txt.gz
RH
26 25 29 26 19 18 23 20 17 20 22 24 24 22 23 28 30 29 30 31 26 24 25 30 38 40 38 39 40 38 37 36 36 32 32 38 35 32 30 32 37 34 33
29 22 19 20 19 14 13 22 26 21 19 20 19 20 22 22 23 30 37 40 38 32 31 28 28 27 25 26 33 39 34 31 30 30 30 33 38 36 35 30 34 28 39
34 33 30 22 19 18 16 16 23 27 24 22 18 15 16 20 24 24 26 29 32 41 44 43 43 42 38 35 34 30 33 37 37 38 39 38 37 39 38 40 43 43 61
29 28 28 24 21 20 18 17 16 19 21 20 18 20 32 47 42 31 26 28 31 34 39 43 45 52 56 55 51 45 41 38 40 42 42 37 36 36 39 44 59 91 100
34 32 30 28 24 24 23 22 21 21 24 23 19 23 23 28 44 60 57 52 42 32 40 48 52 52 68 72 68 64 64 55 47 44 45 41 41 40 49 69 89 94 84
33 33 35 34 30 29 28 27 26 27 25 24 29 26 25 34 50 47 57 68 77 83 79 63 52 68 71 82 84 77 74 65 71 66 57 56 61 65 70 98 86 57 61
39 40 39 40 36 34 34 28 26 26 26 25 24 28 28 33 36 46 56 59 91 94 90 94 92 76 85 76 77 83 88 83 78 74 55 56 72 72 94 95 74 74 81
39 38 41 41 38 36 36 35 31 30 25 23 23 25 26 27 31 47 65 71 82 94 100 97 94 82 94 92 90 90 94 90 85 86 68 72 55 82 100 96 97 89 89
40 33 35 43 37 37 34 35 39 34 31 29 26 27 26 27 32 41 59 81 96 100 100 100 100 100 99 99 100 100 100 100 100 97 97 88 84 100 100 100 100 97 81
38 34 35 34 39 40 35 32 32 32 32 28 25 25 27 31 37 37 45 66 77 100 100 100 100 100 100 100 100 79 88 100 100 99 93 100 100 100 100 100 100 96 73
37 33 32 33 32 32 30 28 26 25 24 22 20 24 30 40 45 42 53 56 57 66 88 100 100 93 96 100 100 100 98 100 100 94 100 100 100 100 100 100 100 82 66
35 36 32 35 32 28 26 24 23 21 19 21 20 26 35 35 37 45 52 56 57 57 61 65 74 87 100 100 100 100 100 100 100 91 90 91 93 100 100 94 68 57 61
42 48 40 34 30 30 26 25 23 21 16 16 16 20 24 25 29 33 38 43 45 56 55 48 48 50 54 80 100 99 99 100 100 100 90 100 100 100 93 76 62 55 60
52 48 51 41 34 31 25 22 21 17 14 12 12 13 16 17 19 22 24 24 24 22 21 23 24 28 31 26 59 89 65 80 92 100 100 100 96 89 78 57 49 52 90
45 40 34 35 32 28 23 19 16 14 12 13 15 16 17 16 16 15 14 16 17 19 18 18 20 20 21 25 27 32 44 55 73 85 70 78 73 55 49 49 53 60 75
36 32 28 25 23 21 20 18 14 13 13 14 17 17 20 22 26 22 18 19 17 16 18 18 19 19 21 26 34 43 49 54 67 70 69 62 60 57 51 46 50 55 83
31 29 27 23 20 17 15 16 16 17 16 16 16 15 19 19 20 22 26 24 22 18 16 19 20 19 21 25 28 29 29 27 27 28 27 32 33 38 48 73 85 90 99
35 32 30 28 23 20 20 19 22 26 30 32 25 24 26 25 28 28 24 20 19 16 16 18 19 20 21 23 26 25 24 24 22 22 20 22 28 32 47 56 64 88 98
42 40 40 42 46 34 26 26 25 30 36 36 31 31 25 24 23 24 23 23 20 17 17 19 19 20 20 22 25 25 24 22 22 23 20 23 26 24 23 26 38 63 81
51 48 51 49 66 63 57 45 39 42 48 44 36 31 30 26 24 24 22 23 22 21 20 24 22 20 20 21 22 24 25 23 23 22 20 29 32 28 25 25 24 38 48
58 57 59 61 56 70 82 64 46 43 37 36 36 41 35 31 33 32 29 24 20 20 29 34 35 28 28 27 25 22 21 21 23 23 23 30 36 26 22 23 22 31 36
77 58 67 58 57 56 66 84 61 70 67 59 82 82 69 60 39 34 33 29 23 19 20 25 35 41 39 40 38 28 23 23 32 33 28 25 29 26 25 24 22 23 30
82 91 83 65 58 55 57 72 81 74 68 61 72 60 52 53 43 36 36 34 34 29 26 25 27 29 33 43 40 30 26 28 47 44 38 31 34 41 28 26 25 25 28
82 84 81 69 58 56 55 56 81 92 70 64 64 80 74 64 54 46 39 39 32 32 30 28 30 37 39 41 46 43 47 50 62 68 58 52 37 39 39 31 29 33 38
80 79 81 73 70 56 55 65 63 93 98 88 63 74 78 61 56 55 45 37 34 33 31 29 29 28 30 32 48 59 64 66 63 76 84 71 56 53 57 48 33 33 35
81 74 72 76 68 64 62 64 72 71 93 98 74 60 81 64 59 63 50 43 36 32 33 32 29 28 30 33 34 54 80 85 88 94 98 94 81 74 62 55 47 37 32

GFSSE_250_rhum_024.txt.gz
RH
20 19 20 23 25 23 18 17 24 27 26 25 24 24 23 22 24 25 26 27 28 29 31 31 28 28 29 31 32 32 33 34 41 41 43 36 29 29 30 29 30 32 29
31 30 28 28 26 24 21 18 14 16 20 20 20 22 23 24 24 22 25 27 29 34 33 35 40 37 35 35 31 32 33 35 35 35 36 37 34 34 32 33 36 34 35
30 30 34 31 24 21 20 19 19 18 17 18 21 19 16 19 21 24 27 18 22 28 30 34 38 44 50 54 56 58 58 55 47 48 46 45 41 39 39 42 39 35 35
26 27 32 32 31 24 22 21 20 19 19 18 16 19 21 19 16 17 18 28 30 30 29 31 35 40 41 45 47 50 54 57 64 66 59 59 59 53 46 46 47 42 43
39 31 29 31 29 30 30 26 25 21 18 19 19 19 19 21 23 22 21 26 30 40 47 48 48 47 47 43 46 50 55 60 60 64 57 61 66 58 50 52 49 51 62
38 38 34 34 32 31 30 26 26 24 23 22 24 22 22 21 18 18 19 22 23 30 40 48 50 53 70 57 52 56 60 66 52 56 64 47 51 53 59 56 46 47 52
39 36 36 37 34 33 31 31 29 28 27 27 27 27 25 24 25 23 23 24 25 30 35 45 45 56 68 82 87 71 76 72 78 80 76 81 80 81 67 73 66 69 78
44 42 40 36 34 35 35 34 36 36 36 34 32 35 30 29 29 29 27 27 30 36 39 39 46 64 62 65 85 100 100 96 98 98 96 99 100 100 100 95 94 97 84
45 40 39 38 36 38 37 33 34 38 37 37 36 34 34 31 30 30 30 28 27 30 31 35 54 60 79 82 100 100 100 100 100 100 100 95 100 91 85 87 99 91 100
39 43 42 42 38 36 36 38 37 37 35 32 35 34 32 29 28 28 26 24 24 28 25 30 38 46 51 70 73 100 100 100 98 89 82 66 66 91 100 93 94 78 84
35 36 44 49 41 38 38 34 33 34 36 37 31 29 25 25 22 22 20 18 20 24 30 36 47 51 50 50 53 64 66 67 72 68 77 99 100 98 88 95 93 84 69
40 39 57 36 35 35 32 31 30 30 30 33 30 26 24 22 20 20 20 18 16 18 22 27 38 39 50 54 56 59 60 66 57 58 79 67 94 100 99 94 79 92 76
40 42 38 42 44 43 37 34 35 36 35 31 26 24 22 22 20 19 17 16 15 15 17 22 25 29 32 37 37 38 37 44 41 40 46 55 99 89 100 84 84 95 83
50 50 45 41 40 43 41 42 43 41 36 29 25 26 28 25 20 20 16 14 13 13 16 20 21 24 24 23 23 22 20 19 19 19 19 22 28 34 36 50 60 55 57
66 49 46 45 44 46 44 38 37 36 34 32 27 25 24 23 20 17 14 13 14 15 16 16 16 16 16 17 19 19 19 20 18 17 20 23 27 36 48 55 69 62 52
54 52 45 43 40 39 37 37 35 33 31 26 22 20 19 18 16 14 12 14 14 15 16 19 22 21 20 21 20 17 17 20 18 18 22 26 28 29 28 29 27 25 28
51 46 41 39 35 36 39 31 30 28 25 24 24 16 16 15 14 14 14 14 15 16 15 15 19 25 25 23 22 21 18 17 19 19 21 23 24 23 25 23 22 20 25
48 46 38 44 57 59 44 43 43 35 27 24 29 28 24 22 23 22 21 18 23 24 22 21 22 24 22 21 20 17 17 18 19 20 21 22 24 22 22 22 24 22 25
54 50 43 42 49 52 51 50 52 52 43 45 45 36 38 38 37 34 30 30 32 27 23 23 22 21 22 25 25 21 20 21 21 22 22 24 23 24 23 23 23 22 30
64 53 50 50 53 50 61 58 62 66 89 77 72 52 49 48 44 38 35 31 30 29 28 26 26 24 23 23 28 32 29 32 34 30 26 25 24 24 24 22 22 24 28
81 71 69 69 58 54 57 69 68 67 66 65 74 80 59 47 41 42 42 57 57 42 31 27 29 30 28 23 20 25 32 39 44 43 42 43 37 30 27 27 29 30 26
78 73 69 73 63 59 62 61 62 70 85 74 64 80 84 83 88 87 86 76 52 46 44 39 35 34 32 30 24 20 20 29 37 47 52 52 48 40 32 29 31 40 36
100 100 94 76 64 62 68 88 76 63 84 100 96 96 98 91 94 76 66 64 64 56 48 40 34 34 35 36 36 31 29 30 32 32 40 49 52 45 37 37 49 53 53
100 100 84 70 67 69 72 77 76 69 55 54 66 64 83 83 86 100 82 70 65 67 54 44 34 33 32 31 35 34 33 32 32 39 41 50 59 62 60 61 65 72 74
100 96 93 95 87 90 87 92 93 85 79 71 68 68 73 76 93 89 92 69 66 74 69 53 43 37 35 35 34 34 33 31 32 33 38 39 56 76 82 79 76 82 89
74 71 73 75 73 70 71 70 76 93 100 100 87 72 74 70 76 92 100 82 67 82 82 67 63 48 46 47 44 43 40 36 31 32 35 38 39 41 54 71 88 97 100

GFSSE_250_rhum_027.txt.gz
RH
21 25 23 26 26 23 22 21 20 20 21 24 29 28 23 22 23 25 26 26 28 28 31 30 31 30 32 34 34 30 31 31 34 38 38 33 34 36 31 31 32 32 32
20 20 20 22 21 18 22 22 22 22 18 14 19 22 22 23 22 24 23 25 27 29 31 30 32 35 36 38 36 36 36 42 42 40 42 45 45 45 43 49 50 47 44
25 22 24 25 27 26 30 29 27 26 21 19 16 15 16 17 19 20 16 16 21 19 18 16 16 24 29 27 30 34 36 40 41 40 40 37 47 39 45 58 50 45 52
24 25 27 30 32 28 27 27 27 24 20 18 18 19 19 18 17 15 15 16 16 15 15 16 17 18 22 27 32 36 34 31 30 35 36 43 48 54 45 38 36 36 46
27 29 29 27 26 25 28 29 27 26 25 22 22 20 19 18 18 18 20 21 22 21 19 21 23 23 22 23 28 38 38 34 35 42 45 43 40 43 51 38 46 50 51
43 34 30 32 35 31 30 29 26 28 29 29 26 23 22 21 21 22 25 26 27 26 26 26 26 29 29 30 35 45 43 39 44 47 62 68 66 56 58 85 91 93 89
53 50 39 39 38 37 31 33 32 30 29 28 28 28 28 28 29 28 26 29 31 30 29 30 30 32 32 34 35 39 41 40 46 57 59 82 89 90 87 87 77 82 100
58 54 53 48 44 45 43 38 38 35 32 33 33 31 30 32 32 32 26 32 32 32 34 33 32 32 26 27 27 28 35 40 42 57 74 55 71 86 88 84 85 75 72
65 65 70 59 55 52 47 42 38 37 32 30 31 29 30 30 30 30 30 29 32 31 28 27 26 23 23 24 25 30 32 33 38 46 56 71 65 68 69 71 67 59 63
90 85 81 78 68 57 49 43 40 38 37 32 29 29 28 29 29 26 27 28 27 24 23 22 20 20 20 21 19 24 27 33 43 42 48 48 53 53 69 77 70 70 63
77 78 70 65 60 52 43 41 39 37 36 31 29 27 27 25 25 26 25 27 26 25 22 21 20 17 18 18 17 20 18 25 29 35 35 47 52 49 50 50 51 56 76
79 65 60 57 55 46 38 36 37 40 36 31 30 30 27 26 26 27 25 24 24 23 22 24 24 21 21 17 16 14 14 16 19 23 30 33 35 34 32 32 31 30 41
80 72 54 48 50 44 43 46 43 37 30 31 34 34 39 36 35 32 31 28 27 27 26 24 23 21 19 17 14 14 14 16 18 20 22 24 22 21 20 19 18 17 18
77 72 63 53 44 40 40 39 41 44 42 38 37 35 34 34 32 32 32 30 31 28 21 20 20 18 16 15 14 14 15 16 16 16 15 16 19 18 19 18 16 19 23
71 68 69 65 60 55 52 51 57 51 43 42 40 36 32 31 31 31 29 27 26 22 21 19 17 16 15 14 15 15 16 18 18 17 18 21 22 18 18 18 18 19 23
68 73 72 77 77 72 68 62 55 49 45 41 36 33 30 28 27 24 23 22 22 20 18 16 14 14 12 14 16 17 18 18 19 23 24 22 22 23 20 19 20 21 22
89 87 85 79 79 78 72 68 54 50 52 46 41 36 34 31 28 26 24 22 23 20 17 15 15 14 13 14 20 23 21 20 21 22 20 19 19 19 18 19 21 22 23
86 97 93 85 82 80 72 65 59 60 56 58 54 44 46 39 41 36 31 28 28 29 26 23 22 25 23 21 24 23 23 23 23 22 21 23 23 20 21 23 24 25 25
74 84 95 88 80 73 66 58 58 59 70 67 67 62 61 71 59 55 47 44 38 38 36 36 34 30 27 27 26 26 24 22 22 22 22 21 20 22 23 29 35 34 31
86 77 77 86 86 79 65 56 61 61 58 71 74 83 84 88 86 75 73 72 49 39 35 36 38 42 45 44 37 30 28 28 28 26 27 25 20 21 26 33 46 48 47
96 91 79 77 84 91 88 75 66 66 56 52 59 59 82 82 81 64 60 54 80 75 78 69 70 72 54 51 47 44 38 34 31 30 32 31 26 23 22 26 37 48 60
100 88 75 80 93 100 97 92 87 88 85 80 64 54 78 91 95 91 97 96 90 95 95 84 66 57 55 53 49 42 39 33 30 33 35 34 34 33 32 32 32 35 47
100 100 100 87 81 90 97 94 92 86 90 95 84 89 68 64 86 89 93 85 81 85 80 74 71 67 70 63 54 50 44 38 33 33 33 35 36 37 35 31 29 32 37
97 94 96 98 94 87 95 100 100 98 91 83 69 66 65 62 73 84 89 99 100 98 88 88 79 77 64 55 55 52 51 46 39 39 38 37 38 38 38 37 37 35 35
98 97 89 88 94 89 82 87 89 91 91 90 81 78 86 76 75 80 93 100 100 100 89 84 71 64 68 70 69 71 60 50 49 45 51 53 48 40 41 41 41 42 42
99 98 96 99 99 93 87 87 81 75 85 83 81 74 83 74 84 100 100 99 94 98 91 82 82 74 79 83 85 82 62 64 55 52 56 56 56 52 51 48 43 43 47

GFSSE_250_rhum_030.txt.gz
RH
42 48 51 43 31 32 33 31 31 30 27 25 25 28 29 28 29 27 23 24 25 24 24 26 26 27 27 26 29 30 30 31 28 30 35 35 35 36 34 32 36 32 33
30 27 29 32 32 30 30 30 30 24 24 25 24 22 19 18 21 24 23 24 25 27 27 25 27 24 24 24 23 25 25 22 25 26 26 27 29 29 27 28 28 29 35
22 19 19 21 22 21 24 22 23 23 25 27 28 27 23 20 17 16 19 18 16 17 20 18 20 19 18 17 16 18 20 20 21 22 23 22 21 22 24 28 28 39 37
23 22 21 20 20 18 21 25 27 25 26 26 24 23 22 20 20 22 24 23 20 19 19 19 20 22 21 19 22 23 23 24 26 27 29 30 30 29 31 31 33 39 42
24 27 28 26 24 25 26 25 25 28 27 25 24 24 23 23 23 22 23 22 21 21 20 20 22 23 25 24 25 25 27 27 26 25 26 24 26 27 28 36 47 55 60
34 34 32 36 32 29 24 28 29 28 25 25 25 25 26 26 24 24 25 24 24 25 25 24 22 24 30 31 28 28 26 25 24 21 20 20 21 29 36 36 37 37 39
48 51 48 45 49 49 39 33 39 33 30 31 29 29 29 29 29 28 27 27 25 24 24 27 23 23 26 28 26 23 22 21 20 19 19 19 18 19 24 26 27 43 51
51 55 56 50 49 53 54 49 44 42 38 39 40 40 38 37 33 31 31 27 25 26 25 25 24 26 26 27 24 22 21 21 20 20 20 18 18 17 21 22 32 32 39
68 62 61 56 50 50 55 55 56 56 48 48 46 42 39 38 36 34 31 27 28 27 26 24 23 23 23 24 25 25 23 23 21 18 18 17 16 17 16 20 29 39 38
92 92 86 78 74 65 62 66 64 68 66 58 50 41 38 37 35 33 32 29 25 24 22 21 21 21 21 24 21 21 21 22 20 19 17 16 16 16 16 16 21 25 31
91 91 90 85 83 82 72 72 72 71 56 52 47 42 37 34 31 29 23 22 23 23 21 20 27 27 26 27 24 24 22 18 17 18 18 18 16 14 14 15 18 23 27
57 66 70 76 85 88 82 75 66 60 58 55 47 38 36 33 31 25 25 28 29 28 26 27 25 24 24 22 21 24 22 19 18 17 16 16 15 14 14 15 18 20 20
41 41 40 41 48 69 78 79 70 58 50 45 43 40 37 36 33 31 31 31 32 30 27 25 23 24 24 22 22 21 20 21 18 17 14 14 14 14 15 16 16 16 18
36 33 32 33 31 32 37 62 70 66 58 53 45 43 44 45 45 48 41 38 34 30 28 27 25 22 23 23 21 20 19 19 17 15 14 13 14 15 18 20 21 20 22
39 36 36 32 33 32 30 36 47 58 59 56 59 58 52 57 55 48 42 38 36 35 32 30 27 23 22 22 21 20 19 17 15 13 13 13 15 17 17 16 18 22 24
67 58 41 38 40 35 32 40 56 62 58 64 70 69 62 57 54 50 46 46 39 32 29 25 24 22 24 25 24 24 22 19 18 16 16 16 18 18 21 21 24 23 22
69 58 51 42 63 68 59 64 67 77 82 80 83 76 75 65 57 55 51 45 38 34 31 33 34 34 37 35 31 29 29 30 28 24 22 23 25 24 21 20 21 22 22
76 71 61 62 67 84 80 80 79 82 82 82 80 77 77 66 59 56 53 52 48 49 48 53 54 50 51 44 41 36 33 34 33 33 32 32 29 26 24 23 23 22 24
94 91 89 77 80 87 85 76 71 73 88 88 86 84 76 65 63 67 70 66 55 59 71 70 70 61 49 43 51 52 52 55 48 44 43 40 37 34 33 31 29 27 25
100 100 100 99 94 94 97 89 83 76 77 78 82 97 92 78 79 70 60 52 50 54 55 63 72 83 80 82 78 74 71 50 55 48 44 42 39 35 30 27 27 32 32
100 100 100 100 100 100 100 93 91 93 82 80 79 82 86 92 79 67 62 57 52 59 63 64 76 78 76 69 68 56 57 61 59 56 53 47 46 44 35 30 30 30 30
100 100 100 100 100 100 100 100 100 99 99 97 90 91 81 79 74 69 74 73 70 72 74 76 75 71 76 66 66 71 63 64 64 64 53 52 53 55 44 39 36 37 37
100 100 100 100 100 100 100 100 100 98 97 100 99 100 89 78 81 86 87 93 86 76 76 72 89 82 72 66 66 76 69 66 58 57 65 70 67 56 54 51 42 41 44
100 100 100 100 96 91 89 92 96 92 84 79 68 65 77 83 83 86 82 97 83 76 85 84 90 78 87 94 70 74 79 77 72 71 71 75 75 62 55 58 54 47 54
82 89 92 95 97 97 94 95 90 94 98 100 100 99 95 96 100 95 88 86 94 98 100 100 100 100 100 85 91 79 87 80 80 84 78 89 81 81 71 61 59 53 60
95 100 100 100 100 100 100 100 100 100 100 100 100 100 95 94 100 100 98 96 93 99 100 100 100 100 100 99 94 84 86 80 81 77 80 95 94 86 91 76 67 62 70

GFSSE_250_rhum_033.txt.gz
RH
55 58 58 57 66 63 42 34 35 36 33 27 25 28 26 25 24 26 29 28 29 29 26 24 25 27 25 23 26 26 24 23 21 22 22 21 22 24 25 26 28 28 29
45 51 50 46 45 56 53 34 32 34 33 34 32 27 24 25 26 24 21 18 17 16 19 18 18 19 23 26 23 23 22 23 23 27 26 26 25 25 25 24 24 23 22
26 26 33 38 35 36 34 34 32 30 28 28 28 27 30 33 33 33 31 26 24 23 21 22 19 17 17 16 17 18 18 19 19 20 21 21 22 23 22 21 21 22 24
22 20 18 22 26 25 26 27 28 25 24 24 27 27 29 32 31 28 26 24 22 22 22 24 23 20 19 19 18 19 19 20 20 22 22 22 23 22 20 19 19 20 19
26 25 25 22 20 20 21 22 21 22 22 24 25 28 30 30 26 23 24 24 25 25 24 25 26 25 25 26 26 26 21 19 24 26 26 24 21 21 20 19 20 20 17
32 28 29 26 24 23 20 21 24 25 24 23 23 24 24 22 22 22 24 26 26 25 26 26 27 28 25 24 24 25 23 23 24 23 22 20 21 20 19 18 18 16 16
48 44 35 29 27 27 26 25 29 38 37 33 31 31 29 28 27 27 27 28 29 32 32 29 28 26 25 26 25 24 22 21 20 20 19 19 18 18 21 19 19 17 17
61 58 50 45 44 43 44 49 48 43 42 46 47 41 34 34 35 37 36 37 37 36 35 32 30 24 24 26 24 21 20 18 18 18 18 18 17 20 18 17 18 17 17
67 78 79 66 55 53 50 52 56 56 53 50 52 53 48 50 50 48 45 42 38 36 35 33 31 30 26 23 21 19 18 20 19 20 22 21 23 21 18 17 17 16 15
59 61 76 82 82 79 69 64 70 77 70 63 56 57 60 63 60 54 48 44 40 37 36 31 26 22 25 27 25 24 24 22 21 20 19 21 20 18 17 17 18 16 14
78 72 67 73 79 78 90 90 86 85 81 78 72 62 63 64 63 55 48 44 37 33 31 29 26 26 26 28 28 24 22 22 22 19 20 20 19 18 18 16 16 16 15
92 99 100 100 99 97 95 97 87 80 72 67 72 72 68 62 57 49 45 42 40 35 34 33 32 31 32 30 26 24 26 24 23 22 20 19 19 18 18 18 18 15 14
91 84 81 75 72 69 61 53 48 51 46 45 49 54 57 65 61 54 47 43 43 44 47 41 40 43 33 27 26 27 26 22 20 20 20 21 20 20 18 18 15 14 14
71 61 56 52 48 45 41 35 31 28 26 27 27 26 30 40 44 46 41 34 34 35 35 36 36 36 35 32 31 29 23 21 22 24 24 26 24 23 22 19 16 15 16
60 57 52 48 42 34 29 28 26 29 27 29 29 26 24 27 35 40 34 35 40 46 45 47 50 45 46 38 32 26 25 27 32 36 34 32 29 27 26 25 25 24 23
66 59 54 50 45 42 38 37 35 36 32 30 30 32 32 34 41 42 51 55 62 63 60 57 60 50 44 36 30 31 33 39 44 43 38 36 34 33 32 32 35 34 32
56 59 58 54 56 54 50 46 45 45 42 40 40 46 47 52 54 57 60 71 76 71 70 62 53 47 44 42 37 48 52 52 49 47 49 47 45 46 44 42 40 38 35
70 67 63 60 60 64 66 59 56 50 54 59 49 54 66 78 76 72 73 85 89 81 71 55 54 52 46 44 42 52 69 68 63 65 63 61 59 47 45 40 38 35 32
85 81 81 76 72 72 74 73 68 70 67 80 98 84 96 95 89 92 96 92 89 72 65 61 60 55 52 46 48 58 60 60 62 62 56 47 51 49 43 39 38 38 38
96 89 90 89 88 75 76 74 77 82 86 89 95 100 100 99 97 97 95 90 83 74 73 72 67 63 46 44 49 57 66 56 61 66 56 49 48 51 48 47 45 44 41
100 100 100 100 100 99 91 96 98 100 100 94 96 96 99 100 100 93 77 79 80 85 83 81 77 66 68 64 66 59 62 53 60 70 63 55 52 58 67 64 60 50 52
95 99 100 100 100 100 100 100 100 100 100 100 99 98 96 94 95 93 91 96 96 89 86 81 90 99 84 88 77 75 66 67 63 62 74 64 58 61 75 72 68 60 66
100 100 100 100 100 100 100 100 100 100 100 100 100 100 100 97 91 77 73 91 100 96 98 95 96 94 93 94 82 65 90 79 81 76 66 73 72 70 71 76 71 69 76
100 100 100 100 100 100 100 100 100 100 100 100 100 99 96 95 95 100 99 98 99 100 100 100 100 100 99 100 93 94 100 98 99 99 92 82 85 79 73 72 70 77 84
99 96 97 99 100 97 91 80 84 98 100 100 100 98 88 93 98 97 95 100 99 100 100 100 100 98 94 100 99 100 100 100 100 98 95 94 97 86 78 74 74 68 77
86 84 87 95 95 92 89 92 92 93 96 100 100 100 100 100 100 100 100 100 100 100 100 100 100 100 100 100 100 100 100 100 100 100 100 100 100 96 64 74 76 70 65

GFSSE_250_rhum_036.txt.gz
RH
36 49 50 55 56 51 44 35 29 25 25 25 26 24 22 24 28 28 26 25 24 24 24 22 20 20 20 19 18 18 20 23 21 21 21 22 22 22 24 23 24 25 24
43 48 49 54 59 62 65 69 64 44 37 38 38 36 34 33 31 29 27 26 26 26 26 23 20 18 18 18 21 19 18 18 19 20 20 17 18 17 19 22 24 23 22
41 42 43 48 51 49 48 51 57 59 45 33 33 34 33 32 30 28 32 32 31 29 26 24 24 24 24 24 24 24 22 21 21 21 20 21 19 20 24 23 22 21 22
27 28 31 37 44 44 41 37 35 34 32 33 32 31 29 28 28 28 28 30 30 26 23 22 21 23 25 25 25 26 27 27 26 24 25 25 21 22 24 24 21 20 19
24 23 21 21 23 26 29 31 31 29 28 27 27 27 26 24 25 25 26 26 24 22 21 21 22 23 24 25 26 27 27 26 24 24 23 23 22 21 19 17 16 16 16
26 26 25 24 23 22 20 20 21 21 21 21 22 23 24 25 24 24 25 26 26 28 27 26 25 24 27 30 31 30 27 25 24 24 24 22 20 18 17 17 18 18 20
29 28 26 26 26 26 24 21 20 21 22 22 24 26 29 33 36 35 34 32 30 31 34 33 33 33 33 34 34 33 31 27 24 25 23 20 19 19 20 19 18 17 19
38 37 37 41 43 45 42 33 29 28 29 32 36 41 45 42 43 48 49 48 44 43 45 43 41 38 38 36 36 35 30 26 23 24 25 24 23 22 21 22 22 20 19
49 52 47 46 49 52 57 54 50 45 45 46 49 51 53 58 58 54 59 56 51 53 55 51 51 46 42 37 34 33 28 25 26 24 24 26 24 22 22 21 18 18 18
51 51 55 54 57 59 57 62 65 63 58 58 60 62 65 72 75 69 62 65 60 63 66 61 54 47 43 36 34 32 31 30 30 29 29 25 24 22 22 20 19 18 19
49 48 50 53 57 59 57 52 53 56 60 60 63 62 66 67 60 51 50 52 54 54 59 54 48 43 40 38 36 37 40 38 34 30 26 24 25 23 20 19 17 18 20
46 49 54 62 72 71 62 61 71 66 65 70 76 73 78 72 68 59 53 50 52 53 50 49 47 46 46 41 37 32 27 32 30 25 28 29 26 23 21 19 22 24 24
59 63 66 71 79 82 92 100 100 100 98 85 77 66 50 40 33 29 28 27 25 24 27 33 32 29 24 25 27 27 30 31 34 38 34 30 26 26 27 34 31 32 29
92 91 96 98 100 99 99 93 77 62 57 53 46 41 32 26 24 24 24 25 24 22 21 26 29 26 28 33 38 35 36 46 42 39 35 28 28 31 40 37 38 36 34
95 92 95 91 84 77 70 65 56 50 42 38 35 31 28 26 26 27 26 26 25 27 33 34 37 45 42 42 41 46 50 49 38 34 31 30 32 40 47 45 44 46 46
78 77 78 76 68 64 57 48 47 45 44 45 41 38 37 37 35 36 36 34 39 45 47 47 49 51 50 57 55 59 51 45 41 38 35 36 39 49 53 53 49 44 43
64 56 50 46 42 46 46 46 45 50 50 48 46 45 49 46 48 44 47 51 52 58 64 67 66 65 68 64 62 58 51 47 43 43 40 40 42 41 41 57 55 46 43
66 75 66 68 71 71 65 60 58 58 58 66 54 55 67 62 54 56 66 76 74 85 89 82 79 77 79 87 77 66 60 54 49 49 48 42 42 45 50 51 52 50 42
86 81 82 76 71 70 65 62 63 70 72 68 68 61 64 71 59 58 79 91 98 93 86 90 86 86 88 93 81 74 71 72 68 59 55 56 54 47 55 55 46 47 52
83 74 71 75 73 75 74 75 77 73 76 89 84 81 72 81 85 87 96 85 89 91 92 96 93 98 93 97 89 80 76 80 76 76 73 76 78 58 62 65 63 64 58
86 92 93 76 72 67 77 72 80 82 93 99 90 95 100 98 98 92 89 84 88 92 93 100 100 100 100 100 100 90 88 99 100 100 87 89 83 73 77 77 78 68 68
100 100 99 100 90 80 82 81 81 84 100 100 98 97 98 100 99 92 100 100 99 99 99 87 80 79 89 98 100 100 100 98 100 97 92 93 97 82 86 100 93 90 70
100 100 100 100 100 100 98 96 94 95 100 100 100 90 82 85 95 97 98 100 99 98 98 97 96 90 80 81 96 97 100 100 96 91 96 100 100 100 97 100 100 95 85
90 100 73 70 82 98 100 100 100 100 98 89 75 77 83 79 85 92 89 97 100 100 92 90 90 89 88 91 95 100 100 100 100 100 100 100 100 99 100 100 100 100 92
83 67 86 100 100 100 100 86 87 92 94 91 95 96 99 97 100 100 100 100 100 100 100 100 100 100 100 100 100 99 100 100 100 100 100 100 100 100 100 100 100 100 100
67 67 83 92 87 71 78 93 94 91 88 88 100 99 97 92 94 95 100 100 100 100 100 100 100 100 100 100 100 100 100 100 100 100 100 100 100 100 100 100 100 100 100

GFSSE_250_rhum_039.txt.gz
RH
24 27 35 28 27 27 31 33 35 35 32 27 24 22 23 24 23 23 25 28 28 24 22 23 22 22 23 21 19 17 17 20 22 23 22 20 20 20 20 20 20 17 17
26 29 31 35 35 35 39 43 43 41 37 36 27 25 31 33 31 30 29 29 27 21 20 22 24 23 23 22 22 22 23 24 23 23 23 24 23 22 22 22 22 21 20
33 34 39 35 39 42 48 50 48 46 50 56 55 43 34 30 31 30 26 24 22 21 23 24 27 27 22 19 20 22 22 23 23 23 25 26 25 25 24 23 22 22 21
34 35 36 41 46 49 48 47 42 41 39 39 37 34 32 32 30 26 23 23 22 21 22 25 25 24 22 22 22 23 23 24 26 28 31 30 29 25 24 24 24 22 22
31 32 30 37 41 39 35 37 35 33 32 32 32 30 28 27 26 26 23 23 24 24 23 23 23 24 25 26 28 26 25 28 32 32 33 33 32 28 25 25 24 23 20
28 27 26 25 25 24 24 24 28 26 25 24 27 25 23 22 23 22 24 25 29 34 36 40 42 39 36 32 35 36 38 35 34 34 35 35 31 28 24 25 26 25 23
27 26 25 24 23 23 24 23 24 24 23 23 22 21 21 22 23 26 30 33 38 40 42 46 48 49 45 43 44 39 42 45 41 39 36 37 31 26 26 27 27 25 24
31 28 28 27 28 28 28 28 28 29 31 32 29 28 28 29 33 39 44 48 53 56 61 66 64 53 53 49 52 54 53 47 43 40 34 33 32 31 34 34 32 29 25
41 34 30 31 30 30 33 33 38 43 46 52 53 57 57 52 54 55 60 64 63 60 65 64 63 53 45 45 48 53 49 46 43 41 38 36 36 37 38 34 29 27 26
60 61 40 32 34 46 55 52 50 48 50 52 50 46 50 54 60 56 56 52 47 64 67 59 59 54 52 55 52 53 48 45 44 43 42 39 31 26 29 28 28 30 29
41 50 57 56 55 53 50 50 52 53 52 53 54 51 43 46 51 50 55 57 63 67 56 42 36 34 31 28 24 31 36 37 32 25 22 22 25 28 34 38 36 29 23
37 38 48 61 60 58 52 49 44 42 42 47 52 47 48 63 84 96 90 78 59 48 41 30 26 25 23 23 21 20 21 25 23 25 31 28 31 32 39 31 28 24 22
45 41 39 43 50 48 43 41 42 45 45 50 60 79 97 98 76 60 55 51 41 33 25 23 25 24 24 24 23 25 26 31 32 36 34 32 34 40 38 34 29 26 27
46 44 40 39 39 38 40 42 45 66 84 98 100 100 85 72 61 49 39 34 32 29 31 34 33 33 32 30 29 34 36 38 38 40 41 40 40 43 39 41 34 33 34
48 49 50 46 50 65 74 90 99 100 100 97 88 81 67 51 44 36 33 35 34 34 36 39 42 37 35 38 41 49 52 54 51 56 52 51 51 49 46 44 39 39 38
93 93 95 96 98 100 100 98 92 89 82 77 70 57 39 35 39 42 43 40 40 38 40 42 40 39 41 44 48 52 57 65 72 70 67 63 58 58 55 48 48 45 48
100 100 100 100 100 94 86 77 72 62 57 49 41 37 40 43 45 47 42 44 47 47 51 49 45 47 46 51 66 72 88 86 85 78 71 70 63 65 60 58 54 49 54
100 100 100 97 92 85 78 70 64 58 53 54 56 54 54 56 59 58 63 62 53 54 54 51 54 60 61 76 91 98 89 97 92 88 86 80 74 72 72 68 60 56 52
93 91 85 78 75 79 82 69 72 71 72 76 69 63 64 66 65 66 65 66 67 58 64 58 54 61 71 81 82 88 85 98 88 89 83 82 92 93 87 79 74 61 57
44 45 46 57 78 91 83 74 69 71 72 63 69 71 66 68 67 64 65 64 69 88 77 65 77 87 90 93 95 100 100 100 100 100 99 98 99 94 89 83 80 80 75
72 71 71 71 75 88 82 70 78 68 66 80 72 62 66 72 68 68 60 58 72 98 100 94 88 96 100 94 96 91 82 92 82 89 79 93 100 96 94 100 95 96 83
92 95 94 100 80 87 78 74 76 90 80 65 70 54 56 60 66 85 100 92 94 92 94 94 96 97 97 98 91 93 88 93 97 89 88 98 100 100 100 100 100 100 100
100 100 100 100 96 80 77 78 80 68 64 60 60 53 54 61 80 93 86 78 95 100 96 94 98 94 86 94 94 87 87 85 86 87 96 99 100 100 100 100 100 100 100
100 100 100 100 95 79 84 78 80 75 64 62 53 62 67 72 77 71 68 88 92 96 94 98 93 98 93 97 97 100 99 100 100 100 100 100 100 100 100 100 100 100 99
100 99 100 99 93 100 92 77 80 74 64 58 63 77 81 79 53 66 81 92 95 91 100 100 100 100 100 100 100 100 100 100 100 100 100 100 100 100 100 100 100 100 100
100 100 100 100 100 99 94 74 68 68 56 53 71 73 49 56 67 68 62 56 62 73 93 99 98 100 100 100 100 100 100 100 100 100 100 100 100 100 100 100 100 100 100

GFSSE_250_rhum_042.txt.gz
RH
25 24 22 23 21 18 18 19 23 29 34 36 34 30 25 22 21 22 24 23 22 24 26 26 22 18 17 18 19 18 17 17 17 17 17 16 18 20 23 26 28 27 26
23 22 21 20 19 20 24 28 32 36 38 38 36 34 29 24 24 30 30 31 31 30 27 23 22 20 20 20 22 21 20 18 18 17 19 20 22 26 30 32 31 30 29
27 27 24 22 22 26 33 34 36 39 41 42 43 45 48 46 39 37 34 30 29 26 21 20 20 19 20 21 21 21 20 21 21 23 27 32 35 33 33 35 35 34 32
27 29 29 26 26 26 30 32 34 37 37 34 31 33 33 32 29 24 23 23 24 24 22 21 21 21 24 26 34 40 42 40 38 40 41 38 38 42 37 36 35 36 32
31 34 35 34 31 29 28 29 26 27 29 25 24 24 22 23 26 26 24 22 21 20 20 21 22 27 36 40 44 46 44 44 42 43 45 43 43 46 41 39 35 36 32
30 27 31 36 34 32 31 33 33 25 25 26 26 24 22 22 22 21 21 19 19 21 23 28 39 48 50 52 57 59 59 49 46 44 47 50 49 46 45 41 36 35 34
30 26 28 30 34 36 36 31 26 24 23 22 22 22 23 24 25 24 22 25 30 33 41 49 55 65 61 60 57 53 51 51 44 40 44 46 45 47 43 41 40 39 37
34 29 29 30 30 31 31 28 26 25 26 26 27 29 33 44 55 58 58 58 58 62 64 63 58 54 48 47 55 49 41 39 37 40 38 39 40 44 44 44 34 25 25
34 30 31 30 31 30 28 27 26 26 27 29 31 38 44 48 52 58 52 46 45 42 44 50 50 52 54 59 55 44 37 30 27 24 22 20 20 22 24 23 25 28 28
33 33 36 45 38 33 33 32 31 30 34 44 55 54 56 55 53 50 47 45 39 42 50 65 80 74 66 50 42 37 30 24 21 21 21 21 21 24 23 25 32 24 33
33 37 36 44 56 68 64 59 42 35 40 52 53 50 48 45 42 38 38 40 44 52 74 79 62 53 46 36 28 25 23 24 22 25 25 24 26 30 33 35 30 31 38
37 39 36 37 40 43 44 52 55 60 66 62 58 50 45 41 40 39 44 53 58 78 78 62 50 37 32 29 29 30 31 28 30 30 31 34 37 37 38 37 39 38 42
45 41 41 41 38 38 40 39 40 44 50 51 52 46 38 38 42 57 68 82 83 73 63 42 31 26 27 28 30 30 33 34 33 35 34 37 39 38 47 50 48 47 43
46 45 44 45 45 45 43 44 42 40 39 39 39 40 40 50 76 87 89 81 73 61 43 30 28 35 38 36 32 33 37 37 37 40 40 44 46 52 67 66 59 52 46
57 58 58 55 52 48 46 47 46 46 45 43 46 56 68 92 93 90 80 68 52 35 30 30 35 36 36 38 37 38 42 40 38 42 43 57 77 76 81 70 62 59 64
60 61 61 64 62 53 50 49 48 47 50 63 80 99 96 87 76 65 53 42 37 37 38 42 44 48 51 45 43 46 46 45 46 54 57 63 70 77 87 75 71 68 68
68 66 62 59 61 61 67 76 81 86 93 100 100 98 84 74 62 61 54 50 57 55 54 51 52 51 54 59 57 53 68 61 65 64 69 85 88 80 86 87 88 77 78
100 100 100 100 100 100 100 100 100 100 100 100 96 88 76 75 68 62 67 65 54 50 49 48 48 51 52 56 72 86 89 83 100 96 91 89 89 90 95 100 100 96 86
100 100 100 100 100 100 100 100 100 97 94 89 96 86 80 66 58 61 57 56 47 45 44 45 48 55 68 83 97 90 98 89 74 93 100 100 100 99 93 95 96 98 93
100 100 100 100 100 100 100 95 80 63 58 71 85 72 68 64 62 59 63 57 54 49 48 45 51 77 100 100 69 84 100 100 100 100 99 95 88 89 88 76 87 99 98
97 89 86 84 83 73 63 61 55 57 64 83 69 68 71 74 71 66 56 54 48 50 46 41 52 90 98 96 82 100 100 100 100 100 100 95 85 85 96 89 82 99 98
100 100 97 92 72 75 68 62 73 87 97 86 82 81 69 69 58 63 59 53 54 47 47 56 80 83 82 60 77 81 86 76 72 75 90 93 100 100 97 100 100 100 100
95 91 90 83 76 76 82 95 100 100 100 100 87 84 74 58 56 54 54 56 58 54 53 58 68 55 55 66 72 81 82 93 98 100 100 100 100 100 100 100 100 100 100
100 100 90 90 98 98 99 98 96 99 96 88 93 73 66 54 49 44 43 61 64 61 56 69 49 58 70 80 81 100 100 100 100 100 100 100 100 100 100 100 100 100 100
100 100 100 100 100 100 100 100 100 88 72 65 76 76 72 55 52 48 45 49 47 44 59 58 52 57 64 78 99 99 100 100 100 99 98 99 99 99 100 100 100 100 100
100 100 100 100 100 100 100 91 92 97 83 84 69 69 62 59 54 52 50 44 43 43 52 62 68 84 99 100 98 88 71 62 64 75 81 84 95 100 100 100 100 100 100

GFSSE_250_rhum_045.txt.gz
RH
39 40 46 48 48 43 37 25 22 21 23 26 30 32 30 29 26 24 23 24 28 29 27 25 23 19 16 16 16 15 16 17 18 24 28 29 31 32 31 30 32 32 34
32 33 32 31 28 28 24 19 19 22 26 32 34 35 36 35 37 34 28 29 36 33 29 27 24 17 16 16 18 18 21 29 34 39 40 38 34 34 33 33 33 32 38
25 25 26 23 20 20 20 22 23 31 34 35 38 39 38 39 38 37 37 32 24 21 19 19 19 20 19 20 22 28 38 44 45 51 46 44 45 39 35 34 36 38 42
23 22 23 23 24 25 25 25 32 37 38 39 40 37 34 28 25 23 24 24 23 22 20 20 20 20 20 24 32 40 45 49 46 40 38 38 37 39 34 29 33 36 37
29 27 27 26 28 28 29 28 32 38 36 35 35 33 26 22 22 22 21 22 22 22 22 22 23 30 38 45 46 47 53 51 42 37 39 39 36 34 31 35 36 36 41
35 31 29 30 34 33 35 36 35 36 36 33 29 25 25 24 23 23 23 24 29 35 38 43 49 50 50 47 49 49 48 42 36 42 38 33 30 29 26 23 22 21 21
37 41 35 35 36 36 34 33 31 29 28 26 23 22 23 25 25 27 30 40 47 50 54 54 49 45 36 31 33 37 45 48 50 44 34 29 25 23 20 20 20 20 20
37 42 40 39 35 33 31 29 29 29 29 26 25 26 27 27 28 30 38 42 45 51 52 46 41 37 31 37 44 56 60 55 41 33 26 22 23 23 22 24 25 24 23
32 40 41 40 39 35 32 30 29 29 30 28 27 28 29 31 37 47 49 53 53 47 41 37 34 36 35 48 62 68 56 42 30 23 22 25 25 26 27 26 27 28 30
34 34 36 37 36 37 38 34 33 33 32 30 32 32 33 38 48 59 57 44 41 41 37 36 42 48 64 76 77 57 42 27 22 23 26 25 28 31 29 30 31 36 36
32 36 40 40 39 42 42 42 53 56 64 56 60 62 44 42 56 66 57 52 47 40 36 45 54 73 79 76 64 48 34 25 24 25 32 33 35 35 34 34 37 38 43
36 36 41 44 43 47 46 40 48 51 55 55 55 53 48 49 51 46 44 44 41 37 47 57 75 78 76 63 45 30 27 26 27 30 37 40 41 42 38 38 40 43 59
44 42 45 45 47 50 50 50 45 43 44 46 46 47 47 47 41 40 39 39 39 49 66 82 85 74 54 41 34 31 33 35 39 40 42 43 42 42 42 43 43 48 60
51 52 52 53 51 51 52 50 49 49 50 51 51 50 47 43 42 42 42 46 62 78 82 84 67 56 46 39 37 42 44 45 39 38 43 46 46 54 59 65 65 65 75
48 52 60 59 55 52 52 50 51 53 55 57 56 52 45 45 48 46 55 79 87 88 83 67 58 51 46 47 44 43 38 38 41 42 50 60 91 98 94 75 71 78 67
71 62 51 52 58 62 58 55 60 65 66 67 62 50 45 50 62 90 100 100 96 86 77 67 57 54 47 45 46 45 42 39 43 63 83 98 75 100 100 85 81 90 99
69 72 66 61 60 67 73 72 70 71 62 61 57 56 76 97 100 100 100 95 88 72 64 56 52 44 45 44 45 44 44 40 48 83 100 100 67 94 100 100 99 100 100
74 73 72 70 77 78 76 71 69 65 73 84 90 99 100 100 100 98 87 77 64 63 61 66 62 57 55 46 44 41 44 44 46 90 98 100 96 100 100 100 99 100 100
75 85 83 79 79 79 76 81 96 100 100 100 100 100 100 100 88 76 70 66 74 68 71 56 54 53 50 43 43 46 48 51 58 86 100 82 83 96 89 87 93 100 100
100 100 100 97 93 95 98 100 100 100 100 100 100 100 92 80 72 68 66 85 100 95 78 69 58 51 46 45 49 55 58 60 74 67 53 64 69 84 87 66 79 77 79
100 100 100 100 100 100 100 98 100 100 100 100 98 86 83 82 76 98 100 100 87 83 81 64 53 55 52 49 46 54 50 48 65 54 48 57 76 89 99 100 100 100 100
100 100 100 100 100 100 100 100 100 100 98 92 84 76 67 82 100 99 99 91 78 69 59 60 54 51 48 45 44 47 45 47 64 72 97 100 100 100 100 100 100 100 100
100 100 100 100 100 100 100 100 100 99 100 94 83 70 81 77 81 82 85 76 63 66 68 56 53 53 48 45 46 44 45 56 82 98 100 98 89 91 97 94 98 100 100
100 100 100 100 100 100 100 98 99 100 100 88 84 100 100 89 72 63 55 63 67 71 57 57 53 48 47 51 50 52 56 66 76 84 86 100 98 100 100 98 92 88 90
100 100 100 100 100 100 100 100 100 91 87 85 96 98 96 96 83 70 58 55 59 62 60 57 48 43 47 56 69 86 100 95 94 96 88 83 71 79 84 83 90 94 100
100 100 100 100 100 100 100 94 90 94 97 92 81 71 79 92 88 77 66 61 55 58 53 48 44 47 57 74 97 100 100 98 88 60 64 65 60 62 65 73 72 89 90

GFSSE_250_rhum_048.txt.gz
RH
49 50 47 44 49 48 54 53 44 47 35 28 25 28 29 31 29 28 26 24 24 28 32 27 24 20 17 18 17 17 18 21 25 27 31 32 32 32 30 27 28 30 30
47 51 48 49 48 52 50 47 42 30 24 23 24 27 31 31 34 35 36 41 39 31 25 23 20 18 16 17 18 21 25 29 30 31 32 35 36 35 31 32 30 23 22
38 40 41 42 45 46 39 34 28 21 20 21 24 28 33 38 38 34 30 29 28 24 20 19 19 20 20 21 28 39 41 35 32 33 32 38 37 32 33 30 26 21 18
27 32 34 35 30 29 26 23 21 21 22 30 32 36 40 38 37 35 31 27 25 22 22 24 27 30 34 40 45 45 40 33 25 28 30 33 38 40 33 25 18 18 21
26 26 27 26 26 24 23 23 24 27 32 35 38 40 43 42 40 37 30 25 23 24 26 33 40 44 49 50 47 44 36 28 26 35 40 49 52 42 28 20 19 22 23
28 27 25 25 24 25 28 30 31 31 34 40 43 44 43 44 37 28 24 25 26 28 32 40 45 50 51 48 40 33 31 31 31 35 48 45 40 35 25 21 20 22 25
40 36 34 30 29 30 31 36 35 36 36 40 42 44 40 33 25 26 27 26 26 29 33 40 51 51 47 36 33 35 35 34 39 57 58 51 40 26 21 22 20 24 30
36 40 42 42 37 36 36 37 37 40 35 32 33 36 32 28 27 28 27 28 29 41 50 60 49 39 36 36 36 40 33 43 52 58 54 34 26 25 24 25 33 35 34
36 41 43 49 49 46 39 34 34 35 35 34 37 36 33 30 28 30 31 34 41 46 58 62 44 41 40 38 40 39 50 56 61 49 38 29 30 32 32 32 35 35 35
38 44 50 52 51 45 39 37 41 38 36 34 34 35 34 32 33 37 57 55 50 51 51 42 39 38 37 39 39 44 63 67 56 41 31 28 32 34 36 35 35 37 38
37 45 49 51 53 51 50 46 48 43 40 39 44 46 50 75 77 69 59 53 44 42 40 39 39 39 39 43 57 70 71 57 48 37 35 35 37 34 35 36 42 59 69
38 43 46 46 46 50 52 52 54 54 54 48 47 62 63 52 43 40 42 41 45 43 40 40 42 44 51 70 75 76 64 50 38 35 37 36 38 38 37 39 60 64 72
46 49 48 49 47 42 45 49 54 61 62 53 48 53 44 42 45 44 46 50 46 43 41 44 52 59 78 85 82 73 46 42 39 40 41 44 41 40 41 46 67 91 64
46 50 49 50 50 49 48 52 55 54 54 56 55 53 52 53 56 60 64 61 54 45 48 59 73 91 93 88 70 47 40 42 46 46 43 41 40 44 43 48 83 96 76
58 48 48 55 58 57 58 56 55 57 58 60 59 58 58 61 68 72 68 59 52 56 76 92 97 94 83 66 48 46 49 50 49 50 45 43 45 47 51 60 100 82 91
63 45 48 53 58 65 71 63 70 73 72 66 63 63 70 77 80 70 61 58 66 98 100 100 94 78 64 58 55 48 48 51 52 52 46 47 46 46 50 72 100 100 93
68 57 53 54 54 55 58 63 65 66 65 67 78 88 86 76 70 67 69 89 100 100 100 98 84 71 71 68 59 54 57 56 52 45 49 48 48 49 48 58 88 78 75
73 70 66 68 67 64 63 73 81 80 78 77 76 74 73 71 70 78 93 100 100 100 96 85 83 81 82 80 67 70 56 56 51 51 52 49 50 49 50 73 68 54 68
75 76 84 92 87 88 99 98 96 97 93 82 73 75 72 71 85 100 100 100 100 98 90 86 78 80 83 79 72 62 58 59 54 55 50 48 51 52 48 57 63 70 78
84 83 81 78 82 88 94 91 87 87 77 80 80 88 96 100 97 100 100 100 98 89 91 89 92 83 89 79 63 58 64 60 56 53 48 52 58 55 56 70 77 88 94
100 100 95 85 83 83 86 97 100 94 98 96 100 100 100 100 100 100 96 94 85 83 87 89 80 79 84 81 66 57 56 56 52 45 45 54 63 69 91 100 100 93 100
100 100 100 100 100 100 100 100 100 100 100 100 100 100 100 100 100 100 100 100 94 85 79 71 73 76 86 74 58 53 54 52 50 51 51 56 70 83 92 90 91 94 99
100 100 100 100 100 100 100 100 99 99 100 100 98 100 100 100 100 100 100 100 100 79 68 66 70 68 68 64 57 55 56 50 50 61 58 64 78 97 100 100 100 100 100
100 100 100 100 100 100 100 100 100 100 100 100 100 100 100 99 88 75 82 67 64 69 77 70 73 65 62 60 59 58 51 49 52 66 94 98 98 93 84 78 84 98 100
100 96 100 100 100 100 100 100 100 100 100 100 100 100 100 89 99 82 68 66 64 67 71 71 63 68 60 58 62 51 58 61 84 85 91 96 73 62 45 50 49 62 74
100 97 98 98 100 100 100 99 99 100 100 100 97 93 100 100 93 96 90 83 75 69 63 63 67 64 60 56 49 53 66 82 92 98 77 50 40 44 41 38 41 47 67

GFSSE_250_rhum_051.txt.gz
RH
33 39 49 50 46 48 45 48 50 58 57 51 53 44 29 27 28 28 30 27 26 27 30 30 24 20 18 17 16 20 23 30 33 29 28 27 21 24 27 31 38 39 34
30 34 45 52 51 45 46 51 57 66 59 54 41 31 25 27 31 32 30 32 33 27 24 21 20 20 22 24 25 28 34 39 39 35 29 23 22 26 30 32 38 35 33
30 32 37 54 54 48 47 55 56 61 51 39 29 25 23 29 28 28 33 27 25 25 24 22 23 24 28 30 33 39 44 44 37 31 26 27 26 29 42 47 44 35 22
23 26 38 54 53 49 50 54 54 47 38 29 24 22 27 29 33 34 33 29 27 25 23 24 26 29 33 36 42 48 46 38 29 29 28 27 32 40 47 48 30 23 21
24 25 42 48 43 44 42 42 38 34 31 27 24 26 31 33 35 38 32 28 25 24 25 26 27 30 34 47 52 41 33 31 30 31 30 34 47 50 48 34 25 26 25
26 26 27 30 33 33 32 30 28 27 27 25 23 29 34 37 39 34 30 24 23 24 25 28 31 41 48 49 51 39 32 32 34 32 32 45 56 49 37 30 28 30 33
29 30 29 28 29 31 31 29 26 28 27 28 29 32 37 42 37 31 27 24 25 27 29 29 36 43 51 53 42 35 35 36 35 30 46 56 55 41 31 29 30 36 35
30 34 36 34 32 32 30 29 28 28 31 32 35 37 40 35 32 29 27 27 27 31 34 41 47 48 42 39 38 36 37 38 36 44 63 59 42 32 30 32 35 37 36
35 35 42 45 44 43 34 31 32 33 34 35 39 35 37 33 33 34 33 32 32 35 55 64 52 43 40 39 38 38 42 41 45 64 66 46 34 31 31 31 38 37 36
40 38 40 43 51 52 50 44 40 38 40 40 40 41 42 40 35 36 36 38 67 72 48 41 39 38 41 42 40 40 45 50 65 69 59 40 34 33 37 38 36 36 38
46 46 41 40 43 48 52 55 52 48 44 44 43 45 46 43 43 51 64 72 52 42 38 38 42 52 52 47 45 54 54 75 78 64 47 40 39 39 44 39 40 43 44
59 51 50 45 41 44 50 57 59 60 58 54 57 58 51 45 42 49 51 46 41 44 44 53 63 59 49 47 59 65 86 88 74 58 47 45 47 45 44 45 45 47 46
64 56 53 56 54 50 49 53 58 57 52 54 62 60 52 48 46 44 45 46 42 45 51 64 65 54 54 61 84 90 88 79 66 55 50 47 52 56 51 49 52 50 47
66 65 61 58 57 57 56 57 62 61 54 50 48 52 48 48 51 53 53 54 52 53 66 70 59 55 67 82 92 92 86 77 64 59 55 56 60 55 51 54 52 52 48
71 75 71 61 58 56 56 58 59 60 59 57 54 55 58 57 60 63 62 62 68 72 68 63 62 83 91 96 95 88 80 71 68 63 65 63 58 55 56 54 50 47 51
81 87 78 73 65 59 60 60 60 60 62 61 61 62 62 70 80 81 74 71 70 66 67 65 87 100 100 99 90 83 79 70 74 69 58 61 62 58 55 54 50 52 63
93 87 85 74 69 70 64 61 56 63 63 64 64 67 72 81 82 77 73 74 70 74 78 87 99 100 98 94 82 75 65 62 60 56 62 73 62 55 58 52 49 47 54
82 84 83 89 83 75 65 64 64 68 67 68 66 70 70 79 92 89 83 77 74 82 88 100 100 100 98 82 74 65 61 58 56 62 71 68 59 58 54 50 48 49 52
88 80 71 78 81 86 82 73 69 70 71 69 73 74 93 100 94 86 81 82 86 96 100 100 100 100 90 81 72 64 58 52 66 76 71 64 62 52 49 50 55 54 56
100 91 92 89 89 83 80 79 78 77 80 90 94 100 100 95 88 87 83 88 93 100 100 100 100 96 94 82 69 64 62 70 83 73 67 65 57 52 46 57 66 81 96
100 100 90 88 91 85 82 81 85 91 96 94 91 88 83 83 88 81 91 94 100 100 100 100 100 98 90 76 68 72 71 80 76 67 64 60 53 44 58 82 86 100 100
100 100 100 100 98 95 94 94 96 91 91 92 96 100 100 100 100 100 99 100 100 100 100 100 95 87 81 77 80 72 79 81 80 68 63 54 44 41 53 78 93 94 99
100 100 100 100 100 100 100 100 100 100 100 100 100 100 100 100 100 100 100 100 100 100 100 100 97 84 81 84 84 78 74 86 77 67 58 46 41 62 77 84 76 64 59
100 100 100 100 100 100 100 100 100 100 100 100 100 100 100 100 100 100 100 100 100 100 100 97 88 83 83 91 82 84 82 74 69 60 44 48 64 77 65 49 33 38 40
83 100 100 100 100 100 100 100 100 100 100 100 100 99 100 97 92 85 82 93 96 85 80 77 82 88 87 86 82 90 83 72 61 42 40 48 56 54 36 33 33 37 38
92 84 92 100 100 100 100 100 100 100 100 100 100 100 100 100 97 97 100 89 86 82 79 80 86 91 90 89 89 88 76 64 45 40 29 36 33 29 24 27 34 37 40

GFSSE_250_rhum_054.txt.gz
RH
59 41 34 29 29 51 58 53 46 48 54 56 50 52 49 46 40 29 29 27 27 28 28 24 19 18 20 22 25 28 28 32 38 39 38 28 27 26 25 31 38 40 34
53 36 33 29 32 41 53 58 56 54 50 58 61 54 47 45 29 27 28 29 30 29 24 24 21 21 23 26 30 32 37 40 40 33 30 27 29 25 29 33 40 36 26
55 36 35 34 35 42 55 54 55 49 53 57 60 60 48 34 30 28 30 31 25 23 23 22 24 26 27 28 30 33 37 47 43 32 30 30 29 29 34 35 36 27 24
58 37 32 33 35 41 62 58 54 52 53 54 61 49 39 32 29 28 30 28 24 25 23 24 26 26 26 28 31 36 43 46 35 33 32 34 30 32 34 42 34 29 26
60 41 30 29 30 34 58 58 56 52 56 60 47 42 33 31 30 28 30 30 30 24 23 25 25 26 25 28 36 44 43 36 35 33 34 34 31 38 44 45 35 31 27
66 48 30 25 24 37 58 56 53 52 53 48 42 38 33 32 31 30 29 28 26 24 25 26 27 29 30 41 46 42 38 36 36 38 37 36 39 52 56 44 36 32 28
65 55 33 26 26 42 51 45 44 42 41 38 36 33 31 30 33 33 29 30 29 28 29 28 30 31 45 51 41 37 35 37 44 38 39 40 51 63 59 44 36 31 30
72 62 37 31 27 31 32 35 37 38 35 31 30 30 34 32 34 32 30 32 35 34 33 32 35 58 53 41 37 36 39 45 39 38 37 45 64 64 56 43 36 34 36
76 71 41 33 29 29 30 30 31 34 32 32 30 33 35 35 32 31 33 36 37 37 36 45 74 53 39 37 38 45 50 42 41 42 48 57 63 61 53 41 38 39 47
79 77 56 34 33 31 30 30 32 35 36 38 35 36 38 37 32 32 35 36 43 48 64 65 50 42 38 41 44 56 48 43 47 52 57 63 71 60 50 42 44 46 53
75 75 66 43 34 36 36 38 40 47 48 48 45 43 41 41 47 49 45 45 44 47 50 47 43 38 43 47 58 52 50 50 62 59 66 73 69 58 48 48 55 58 58
73 68 75 53 40 39 41 43 44 48 56 56 55 52 46 52 56 58 58 58 54 50 47 48 48 49 53 66 58 55 54 61 78 80 86 73 66 53 51 55 53 58 64
76 67 74 66 51 46 45 44 43 44 49 54 55 55 55 56 57 58 56 55 52 49 52 56 56 59 70 61 58 62 65 72 86 80 80 73 60 58 54 51 59 65 61
67 63 67 78 61 56 53 52 51 48 48 51 55 57 58 58 56 54 53 52 51 54 62 66 64 64 61 60 59 67 75 92 87 86 78 67 62 57 50 56 65 66 60
87 91 78 79 78 66 61 60 56 54 53 54 54 58 61 59 57 56 56 54 54 60 72 70 64 65 66 55 66 76 90 89 85 79 74 66 61 54 54 68 69 68 63
93 82 86 79 90 78 69 67 69 62 60 56 55 58 59 58 58 58 61 61 62 63 65 67 81 77 62 65 71 86 93 86 87 82 72 66 58 59 68 72 70 70 60
88 84 100 96 96 91 80 70 67 66 65 60 56 60 60 62 69 75 74 64 59 58 65 93 84 69 67 74 88 97 96 95 83 78 74 64 64 70 73 75 72 67 52
86 83 80 88 88 87 86 80 84 83 76 74 66 66 66 69 72 74 71 65 64 75 100 89 77 71 68 79 97 95 93 89 84 81 70 66 72 77 77 77 74 61 50
68 67 70 72 70 71 76 86 84 85 85 83 81 77 76 72 74 76 71 72 87 100 93 83 75 73 87 92 94 89 84 90 86 76 76 76 83 83 80 77 65 54 46
94 92 84 78 77 86 99 99 95 96 94 95 93 93 94 95 94 88 96 99 99 93 86 83 88 93 92 86 88 87 87 87 85 84 83 92 87 80 84 70 59 49 44
100 100 100 100 100 99 100 100 99 100 100 100 100 100 100 97 90 92 98 100 94 89 92 92 97 95 90 88 84 93 86 91 87 90 93 90 88 87 80 67 54 47 45
100 100 100 100 100 100 100 93 92 94 96 99 99 95 90 88 84 89 96 100 100 100 100 100 93 86 96 93 83 84 96 94 95 97 92 93 94 87 69 60 49 44 48
100 100 100 100 100 100 100 100 100 100 100 94 89 90 90 92 94 97 92 90 98 100 100 100 98 99 100 100 100 100 98 96 100 99 98 96 88 71 65 50 49 44 39
100 100 100 100 100 100 100 100 100 100 100 100 100 100 99 99 100 100 100 100 100 100 100 100 100 100 100 100 100 100 93 97 96 92 94 93 77 67 56 54 50 47 36
100 100 100 100 100 100 100 100 100 100 100 100 100 100 100 100 100 100 100 100 100 100 100 100 100 100 100 100 100 96 100 95 85 81 84 78 67 55 47 50 42 34 26
94 98 100 100 100 100 100 100 100 100 100 100 100 100 100 100 100 100 100 100 100 100 100 100 100 100 94 93 99 98 97 89 88 77 70 64 47 41 52 48 40 27 28

GFSSE_250_rhum_057.txt.gz
RH
75 66 53 51 46 42 36 34 35 37 34 28 28 40 46 49 45 48 47 34 31 30 28 30 27 19 20 22 25 27 28 29 31 38 41 31 28 29 28 25 27 34 38
67 64 59 58 49 40 35 32 35 48 51 42 37 51 48 51 54 47 43 30 28 27 31 30 21 21 23 25 26 27 28 33 40 41 33 29 31 31 32 29 33 38 44
67 66 60 60 47 36 33 33 39 52 58 56 54 51 56 58 61 49 37 31 28 29 27 24 21 22 25 25 26 25 27 36 43 37 32 32 33 32 31 30 40 47 54
65 67 62 56 42 35 38 36 39 52 59 56 59 55 60 66 60 43 37 31 29 30 28 25 22 23 24 26 26 27 39 45 37 33 32 35 34 33 30 31 48 52 52
60 67 63 56 37 34 38 35 41 55 62 61 58 63 65 62 47 41 35 31 32 30 32 27 24 24 24 26 29 38 43 39 35 33 36 37 33 31 30 40 54 54 49
66 70 65 57 39 31 34 35 35 55 65 67 65 68 64 49 44 37 33 34 36 33 31 28 26 26 26 29 35 48 42 36 34 33 39 37 32 30 37 47 45 54 46
72 72 66 58 41 30 28 25 31 56 66 63 56 61 54 44 40 36 36 44 41 36 32 33 30 30 32 40 59 47 38 35 34 40 42 39 34 35 38 45 53 55 44
84 96 78 60 46 32 27 25 37 56 61 52 50 48 45 41 37 34 34 41 41 33 36 34 33 35 44 57 51 42 36 34 39 45 40 37 35 34 42 52 57 49 45
86 100 93 76 53 36 31 26 37 48 42 42 44 42 38 37 35 36 38 41 36 37 38 35 40 49 58 49 41 35 34 38 46 46 40 35 42 45 52 61 59 49 50
77 94 88 85 61 44 37 28 32 34 37 39 39 37 36 38 39 41 44 45 42 44 40 42 45 42 42 40 35 38 41 53 50 46 42 44 52 54 53 63 57 55 57
81 83 82 84 74 55 40 35 32 31 32 32 32 34 38 44 47 50 46 43 46 48 48 50 49 48 43 37 40 44 53 53 52 46 47 48 56 54 62 70 66 60 58
77 80 93 83 95 64 52 39 37 37 34 34 36 41 43 47 55 56 56 57 59 59 56 54 53 49 45 41 47 58 59 64 54 51 60 59 60 61 70 74 66 62 62
100 93 93 86 92 78 63 51 41 38 41 43 43 46 51 55 58 55 56 55 58 55 52 50 50 48 47 49 62 65 70 64 52 54 64 69 62 65 77 77 68 64 68
100 99 90 89 82 83 71 62 52 42 42 44 46 50 50 52 53 55 56 55 54 52 52 52 54 52 52 54 55 71 71 62 52 56 64 64 59 69 82 81 73 70 74
100 100 100 100 98 85 79 71 59 49 44 44 45 46 46 48 50 54 55 56 54 54 54 56 58 56 55 55 61 74 70 62 59 58 70 69 74 79 89 85 66 74 75
100 100 99 90 92 92 85 79 77 66 53 51 50 51 52 54 56 59 57 55 58 59 63 68 68 60 58 59 80 76 68 66 61 65 74 74 79 90 86 77 75 80 77
100 100 100 100 100 100 97 87 79 79 68 56 54 55 55 60 63 60 57 60 62 61 64 63 62 64 75 90 88 77 65 67 69 74 71 79 90 86 82 80 85 76 76
100 98 100 100 100 100 100 99 91 86 81 70 63 61 59 62 66 64 69 66 69 74 73 78 82 95 93 89 81 75 78 76 78 78 79 91 92 86 85 89 78 79 73
100 100 98 91 99 97 93 93 88 92 92 93 87 84 81 83 81 78 77 78 88 92 95 92 95 90 87 90 87 88 79 79 84 94 94 93 94 94 93 84 77 76 73
100 100 85 78 74 77 93 100 100 100 98 95 93 92 91 92 90 89 82 87 87 96 100 100 89 91 95 83 85 82 91 91 99 99 98 98 99 93 86 79 78 70 73
100 100 100 84 78 81 88 93 100 99 100 100 100 100 100 99 96 100 100 100 98 100 96 91 96 93 97 94 99 99 100 100 100 93 100 100 97 92 83 78 76 76 67
100 100 100 98 80 78 86 98 100 100 100 100 100 100 100 100 100 100 100 100 100 99 98 98 99 98 96 98 94 99 100 100 95 100 100 100 100 95 81 80 83 69 61
100 100 100 100 93 93 99 100 100 100 100 100 100 100 100 100 100 100 100 100 100 100 100 100 96 95 100 100 100 92 91 100 100 100 100 100 100 87 83 89 74 66 53
100 100 100 100 100 91 99 100 100 100 100 100 100 100 100 100 100 100 100 98 94 95 100 100 100 100 100 100 100 100 100 100 100 100 100 100 97 87 93 85 73 54 39
100 100 100 100 100 100 97 100 100 100 100 100 100 100 100 100 97 90 92 98 100 100 100 100 100 100 100 100 100 100 100 100 100 92 93 98 84 100 88 73 57 42 34
100 100 100 100 100 100 100 99 100 100 100 100 100 100 100 100 100 100 100 100 100 100 100 100 100 100 100 100 100 100 100 98 95 97 96 83 83 78 64 59 46 38 40

GFSSE_250_rhum_060.txt.gz
RH
42 57 55 48 40 36 35 33 32 30 28 28 28 31 27 30 36 45 55 54 52 40 33 30 29 30 29 19 19 23 26 26 27 31 37 34 30 28 32 30 28 24 26
50 58 61 52 57 51 46 39 34 34 32 32 30 30 31 32 35 46 52 54 48 36 30 28 31 32 25 22 22 25 25 26 29 40 38 34 30 34 34 32 27 27 29
57 61 65 66 64 62 58 48 41 35 32 29 32 40 46 41 47 50 56 59 47 34 31 30 33 27 23 22 24 25 26 32 42 40 36 34 32 35 36 33 27 27 29
57 56 65 74 67 60 60 53 41 32 28 32 34 48 54 53 54 66 66 62 45 35 31 33 32 27 23 23 24 25 28 35 40 40 36 34 32 36 34 32 28 29 31
61 58 65 72 72 60 56 50 36 32 30 32 42 57 60 60 63 67 68 59 42 37 32 35 35 35 26 24 26 26 30 39 46 39 36 31 31 37 35 33 29 30 30
62 70 67 69 78 67 55 48 34 34 32 32 44 65 67 65 79 70 62 50 40 36 36 39 39 34 29 28 29 30 35 49 44 39 34 32 38 39 36 33 31 32 32
64 78 74 71 71 71 59 48 32 33 34 33 44 67 73 80 83 70 52 45 40 38 41 47 43 34 30 32 30 36 49 48 40 35 33 39 42 44 38 32 30 31 38
67 78 93 79 70 72 64 52 30 29 26 29 47 66 74 62 67 55 47 44 40 39 43 51 41 35 36 34 38 47 46 38 34 38 41 48 48 45 38 33 35 35 49
75 74 76 84 71 67 67 58 33 28 25 30 50 64 63 54 55 50 46 45 44 44 44 48 42 40 38 35 37 36 35 35 38 47 52 55 50 45 40 36 40 46 58
76 82 77 81 80 79 76 67 41 31 26 35 51 57 49 52 53 46 44 47 49 47 47 43 41 43 41 39 40 36 34 37 44 52 56 55 50 44 44 39 47 62 68
77 81 85 79 77 84 74 74 59 35 29 30 39 38 44 52 49 44 44 45 48 51 47 43 43 45 45 43 42 40 36 40 46 44 50 54 51 46 42 46 52 62 70
81 82 84 84 77 82 82 77 72 41 37 34 35 37 41 44 38 37 41 43 46 49 51 48 47 46 45 42 43 44 45 47 46 46 58 60 52 45 44 50 61 73 75
100 98 89 92 89 82 78 82 71 70 42 39 37 34 34 36 36 39 46 54 58 62 60 57 58 57 55 52 47 46 47 49 47 56 67 63 48 47 49 59 71 81 89
92 96 90 78 82 84 75 84 79 71 73 43 41 42 38 38 42 46 49 56 61 60 55 56 56 55 50 46 45 52 53 51 62 73 69 56 56 52 61 72 80 87 95
100 99 79 95 84 87 84 85 78 71 72 63 45 46 44 45 47 51 52 53 54 54 55 59 60 56 52 50 53 61 67 68 77 73 59 54 57 60 73 80 90 92 98
100 100 96 84 91 86 86 99 96 86 70 72 68 46 47 45 47 51 51 52 56 58 61 59 58 57 58 63 72 86 78 79 73 74 58 62 59 66 76 88 98 97 100
100 100 100 100 95 100 99 98 100 95 93 73 69 71 56 52 54 56 55 57 62 63 60 64 67 68 66 78 87 85 83 78 77 74 70 68 69 82 91 93 100 100 100
100 100 100 100 86 87 92 100 100 100 92 83 70 63 71 77 71 65 61 59 65 69 76 79 82 80 82 89 90 86 85 80 79 81 81 84 92 97 100 98 100 100 92
100 99 100 100 96 86 81 88 100 100 100 91 86 80 75 79 82 84 81 82 83 85 89 88 91 89 96 94 88 87 88 92 90 93 95 92 96 100 98 100 95 90 77
98 100 100 100 100 90 87 80 80 96 98 96 94 87 87 82 83 90 91 90 92 91 91 95 95 100 94 90 90 93 91 88 92 88 94 100 100 100 99 91 86 79 72
95 95 100 100 100 100 100 90 85 80 74 74 90 96 96 100 100 100 98 93 97 100 98 100 100 96 99 97 100 98 98 93 88 92 100 100 98 100 89 86 79 74 71
91 96 100 100 100 100 100 99 87 94 77 77 91 97 100 100 100 99 94 92 97 96 94 99 100 100 100 99 94 99 100 100 100 100 100 100 94 94 95 87 83 73 73
90 92 100 98 100 100 100 100 99 90 92 90 88 99 100 100 100 100 100 100 100 100 100 100 100 100 100 100 98 100 100 100 100 100 100 100 100 97 96 89 80 79 77
85 73 71 99 100 100 100 100 99 93 96 100 100 100 100 100 100 100 100 100 100 100 100 100 100 100 100 100 100 100 100 100 100 100 100 100 100 100 97 89 80 81 74
97 94 86 80 95 100 100 100 100 100 100 100 100 100 100 100 100 100 100 100 100 100 100 100 100 100 100 100 100 100 100 100 100 100 100 100 100 100 94 85 84 75 65
100 100 100 92 86 81 97 100 100 100 100 100 92 97 100 100 100 100 100 100 100 100 100 100 100 100 100 100 100 100 100 100 100 100 100 100 100 99 94 89 79 64 48

GFSSE_250_rhum_063.txt.gz
RH
59 41 39 50 48 45 52 44 38 33 29 29 27 29 28 27 34 33 30 43 47 57 56 48 36 30 30 30 31 25 21 23 24 24 28 42 37 34 32 31 30 32 31
60 46 37 44 39 47 52 46 39 33 32 31 30 30 26 30 32 31 33 44 49 53 54 47 36 30 30 32 31 22 23 24 23 25 33 37 37 34 32 30 31 36 32
64 61 42 41 52 60 52 42 36 35 32 29 30 32 31 33 35 41 43 52 54 58 57 48 36 31 33 35 29 23 23 22 23 26 33 42 38 36 32 32 33 38 33
67 70 46 49 62 62 57 47 38 38 35 32 32 29 28 32 41 52 56 63 66 68 63 50 37 34 37 36 31 24 24 22 24 29 40 44 40 34 34 36 38 40 35
59 73 56 61 66 60 59 57 46 48 46 41 34 29 26 30 46 63 61 70 77 75 65 51 38 37 37 40 36 29 25 25 28 39 48 43 34 34 37 41 40 40 37
57 59 69 66 66 62 59 59 57 51 48 42 34 27 26 36 56 69 65 73 76 73 59 48 41 38 41 43 39 32 27 28 32 46 39 31 32 35 40 46 43 41 39
76 53 57 82 76 68 64 65 62 58 50 43 33 28 31 38 59 69 75 81 86 67 53 45 40 37 41 46 38 31 28 29 38 34 32 31 34 38 39 38 41 43 39
76 73 50 56 81 79 70 58 58 60 58 46 32 30 31 35 56 70 81 86 84 58 49 44 39 38 40 46 38 34 31 30 34 35 33 34 34 40 39 39 41 44 38
84 77 64 54 62 81 73 62 58 62 58 49 30 27 26 36 59 72 72 65 64 54 46 45 42 42 43 44 40 38 39 35 35 37 35 37 40 37 39 41 51 44 38
98 70 78 80 70 75 81 80 65 63 56 54 31 26 25 42 58 65 61 57 57 52 46 43 43 48 48 45 42 45 41 40 40 40 40 38 39 38 41 54 53 41 44
100 89 85 88 72 74 76 75 74 71 67 56 37 27 27 43 50 57 50 54 55 48 44 43 46 51 51 49 50 46 44 44 43 39 34 39 37 35 55 53 43 47 45
95 91 98 90 68 78 88 84 81 85 77 59 49 32 28 33 40 41 46 53 52 41 39 42 48 48 47 49 50 49 48 46 44 43 41 37 40 40 47 47 46 50 47
100 95 88 100 84 79 84 80 76 75 71 72 57 41 34 35 37 42 46 50 45 38 39 45 52 54 55 58 57 57 55 50 48 44 48 50 49 53 46 44 48 51 53
100 99 75 87 92 90 77 68 65 70 69 77 72 56 41 42 43 41 41 43 48 49 55 58 62 64 60 58 53 53 48 47 50 54 65 53 54 56 51 51 56 59 58
99 100 100 84 91 94 84 76 67 67 71 62 68 74 55 46 43 50 50 48 48 52 57 59 56 56 54 55 54 53 56 60 66 70 66 57 57 58 60 63 68 65 77
100 100 100 88 83 99 100 96 87 78 71 75 74 71 78 61 58 48 52 55 55 55 56 55 54 55 56 56 62 65 80 79 74 74 61 60 60 64 67 74 76 81 91
100 100 100 94 96 97 100 100 100 96 83 72 79 67 68 75 66 67 65 58 59 58 57 58 59 60 62 63 75 90 84 80 81 75 72 72 71 70 72 74 76 94 93
100 100 100 98 100 99 100 100 100 100 100 94 77 80 69 69 75 67 67 71 74 76 77 76 76 72 80 85 82 88 87 85 86 85 82 76 79 75 74 74 90 96 95
100 100 100 100 100 99 99 100 100 100 100 100 92 91 98 86 72 73 76 68 66 70 75 79 84 87 89 89 84 88 88 93 99 94 82 88 82 78 84 92 97 100 100
100 100 100 100 100 100 100 100 99 91 94 94 94 94 92 90 86 80 78 81 83 84 84 82 79 82 89 85 95 90 97 100 97 89 93 89 92 100 99 99 100 100 99
100 100 100 100 100 100 100 100 100 100 96 84 74 73 74 67 68 74 84 86 89 100 100 94 96 100 100 98 97 100 100 98 95 99 98 100 100 100 100 100 100 98 89
100 100 100 100 100 100 100 100 100 100 92 88 81 73 71 70 74 80 88 98 100 100 100 100 100 100 100 100 100 99 100 100 100 100 100 100 100 99 100 99 93 86 80
68 71 100 100 100 100 100 100 100 100 100 100 93 94 90 88 89 96 100 98 100 100 100 100 100 100 100 100 100 100 100 100 100 100 100 100 99 98 95 87 77 76 75
86 79 74 91 100 100 100 100 100 100 100 100 100 93 84 82 85 96 100 100 100 100 100 100 100 100 100 100 100 100 100 100 100 100 100 100 100 98 89 84 83 74 70
90 99 88 78 92 99 100 100 100 100 100 100 100 100 100 93 78 79 95 100 100 100 100 100 100 100 100 100 100 100 100 100 100 100 100 100 100 99 88 84 73 69 61
85 100 100 100 100 100 99 100 100 100 100 100 100 100 100 100 100 98 100 100 100 100 100 100 100 100 100 100 100 100 100 100 100 100 100 100 100 100 91 83 70 66 55

GFSSE_250_rhum_066.txt.gz
RH
74 74 51 36 38 47 49 54 46 43 40 38 34 34 30 28 26 28 27 30 36 33 36 45 57 54 44 35 30 29 32 30 21 20 23 24 27 31 38 37 34 30 33
55 63 64 46 37 40 47 54 52 48 45 41 37 35 33 33 33 30 30 37 38 37 44 54 56 52 47 37 32 32 32 28 22 21 22 23 28 35 40 35 31 27 32
69 61 57 58 50 39 43 52 43 43 42 42 36 33 33 33 31 32 34 42 46 49 57 61 64 57 50 41 35 33 33 29 23 22 22 23 29 36 36 29 28 29 33
76 71 66 59 61 46 41 48 46 45 41 35 32 32 33 28 30 29 30 41 58 62 65 69 72 63 57 46 38 36 35 33 29 26 24 25 32 33 25 25 27 28 29
68 68 67 62 69 58 41 50 60 50 41 36 32 33 36 36 31 28 28 40 64 68 70 77 79 69 57 47 42 37 37 38 34 29 27 27 35 28 26 25 25 30 30
68 65 66 64 61 70 46 54 57 56 51 47 40 39 40 39 32 26 30 46 68 68 71 76 78 68 55 48 43 37 38 43 36 32 29 28 29 31 28 30 30 31 28
68 65 72 70 59 69 56 55 56 53 52 54 52 47 46 41 30 28 30 51 68 70 77 87 82 65 53 47 39 37 40 43 39 32 30 28 27 31 32 32 33 30 32
88 94 82 87 64 61 66 66 60 60 54 56 54 52 52 45 30 31 32 54 67 85 92 92 86 61 51 45 38 39 39 39 37 33 33 31 30 31 32 32 34 31 35
99 100 94 88 90 63 55 58 61 59 62 61 58 52 53 46 31 27 28 49 68 82 80 73 71 56 50 43 41 41 41 41 40 38 35 35 36 36 35 32 32 36 38
100 100 100 83 85 75 64 47 48 56 61 64 60 54 49 48 32 25 26 44 61 69 69 61 60 55 48 42 40 46 46 46 42 42 42 41 41 39 37 39 35 34 38
97 96 100 87 81 80 68 57 59 60 58 61 67 58 53 54 35 26 29 44 53 59 58 54 57 52 44 42 45 51 48 48 47 48 45 45 39 38 49 41 36 41 40
100 86 86 86 100 92 76 80 73 65 64 66 70 76 64 56 45 29 27 36 42 45 45 50 55 54 43 43 47 47 50 54 51 49 47 44 40 46 45 40 42 43 47
84 86 83 69 100 100 95 88 78 63 61 65 81 80 78 66 56 41 29 31 36 38 42 47 52 45 38 44 52 57 60 61 56 53 47 44 47 51 47 45 47 50 50
87 84 83 71 89 94 99 100 87 68 63 63 68 83 73 73 60 56 41 33 36 39 42 42 40 44 48 58 60 58 56 52 51 48 47 51 58 55 54 52 54 55 59
100 98 86 86 81 81 98 99 89 83 76 76 78 73 74 80 78 65 62 48 39 41 48 52 53 52 54 54 55 55 52 49 49 50 54 60 61 66 71 64 62 61 60
100 100 100 88 86 91 100 98 80 84 83 92 87 77 72 69 78 78 74 61 59 48 40 40 43 48 51 50 51 52 53 55 60 68 64 66 67 71 72 70 62 67 57
100 100 100 100 100 91 95 100 100 93 90 91 92 93 86 76 75 92 87 74 71 64 58 52 50 50 52 54 57 60 66 67 72 70 73 75 83 85 81 72 71 63 70
100 100 100 100 100 100 100 100 100 100 97 98 100 100 100 98 91 80 86 85 75 66 63 63 58 57 61 67 66 70 74 74 77 80 83 93 96 94 86 77 74 79 87
100 100 100 100 100 100 100 100 100 100 98 96 99 100 100 100 100 100 95 94 88 77 71 69 71 72 75 74 78 84 86 96 97 100 100 100 96 89 85 86 87 90 95
100 100 100 100 100 100 100 100 100 100 100 100 100 100 100 100 100 96 88 86 85 85 89 88 94 91 88 94 95 100 100 100 100 100 100 97 94 90 92 92 99 98 99
100 100 100 100 100 100 100 100 100 100 100 100 100 100 100 84 81 76 73 84 90 89 85 85 82 97 100 100 100 100 100 100 100 100 100 96 89 98 99 90 99 100 100
100 100 100 100 100 100 100 100 100 100 100 100 100 100 100 100 100 100 100 96 94 79 77 75 82 94 99 100 100 100 100 100 100 100 100 100 100 100 100 100 100 100 100
100 100 100 100 100 100 100 100 100 100 100 100 100 100 100 100 90 91 95 92 96 85 94 84 83 93 100 100 100 100 100 100 99 100 100 100 100 100 100 100 100 100 94
99 100 100 100 100 100 100 100 100 100 100 100 100 100 100 100 98 100 96 93 84 83 77 83 87 100 100 100 100 100 95 93 98 100 100 100 100 100 100 100 100 94 90
75 91 96 100 100 100 100 100 100 100 100 100 100 100 100 100 100 100 100 100 99 100 99 80 67 92 94 100 100 100 100 100 100 100 100 100 100 100 100 100 99 96 94
28 49 70 82 89 100 100 100 100 100 100 100 100 100 100 100 100 100 100 100 100 97 98 100 100 100 100 97 100 100 100 100 100 100 100 100 100 100 100 100 100 94 90

GFSSE_250_rhum_069.txt.gz
RH
72 59 70 71 56 36 35 41 42 43 40 35 33 33 33 34 33 30 29 29 27 28 32 36 40 49 55 56 51 46 38 32 31 30 28 22 21 20 19 22 25 24 23
79 73 73 71 60 52 36 38 44 46 51 51 47 46 44 38 33 32 32 31 31 33 36 40 47 57 63 58 56 49 44 36 34 32 31 25 25 24 22 24 27 22 20
74 72 71 77 69 64 52 40 36 43 51 54 48 42 42 41 36 35 32 29 31 33 36 48 55 65 67 68 63 58 53 42 36 35 35 33 31 25 24 28 26 25 22
75 65 78 67 64 66 66 58 44 35 42 51 46 43 40 34 31 35 32 33 30 33 40 60 67 72 76 77 72 62 57 46 41 36 34 35 32 29 27 27 25 27 24
78 68 70 67 67 62 65 69 55 40 37 48 47 44 41 39 38 40 38 35 30 33 47 72 78 76 83 77 76 65 57 48 40 34 35 38 36 30 28 29 26 27 27
82 84 85 84 70 69 66 68 65 49 39 41 45 47 53 55 51 46 42 34 28 34 48 71 80 79 88 81 78 66 57 49 37 36 35 36 37 32 32 28 27 28 29
82 78 84 84 65 62 63 66 67 58 44 46 50 49 53 57 56 54 48 36 30 30 41 65 77 85 95 91 84 68 54 48 39 38 36 37 38 36 32 31 29 30 30
73 80 79 76 75 66 60 68 63 65 56 54 52 54 52 55 53 56 51 38 30 30 36 62 77 87 95 86 78 62 53 46 41 34 37 40 39 36 37 33 33 33 33
73 77 74 74 71 69 72 68 61 66 67 63 61 55 49 51 51 52 54 40 30 27 31 55 72 77 74 68 63 60 53 45 36 38 41 39 39 43 42 40 39 37 40
100 94 91 80 75 74 93 79 73 64 71 65 50 49 51 51 56 52 54 48 31 26 30 50 62 66 65 58 59 57 48 40 38 42 41 43 51 52 44 42 38 39 38
84 100 95 81 85 94 87 85 82 81 62 54 49 52 57 54 55 54 51 52 38 27 31 46 51 54 54 51 55 54 48 40 39 44 49 51 51 49 46 42 38 40 36
89 98 97 93 82 82 100 100 75 78 74 60 59 60 56 56 57 60 52 48 47 34 28 32 39 42 44 46 50 53 49 40 45 49 53 52 50 46 40 38 42 42 39
100 100 77 97 90 84 99 100 89 81 74 70 76 64 60 57 64 60 64 58 50 46 37 29 31 34 38 42 44 40 40 39 46 52 55 52 48 46 45 48 49 51 52
100 83 100 100 94 100 100 100 90 97 81 70 81 72 52 60 68 67 73 64 59 49 46 41 34 33 35 37 37 37 40 47 50 48 45 46 50 55 59 59 66 66 65
70 69 83 100 100 100 100 97 68 94 100 100 100 98 68 65 69 74 74 69 64 61 54 53 48 43 40 37 36 38 39 40 42 43 46 51 60 66 73 78 84 75 67
94 87 85 100 98 91 89 99 85 78 93 84 77 84 98 87 88 85 86 78 70 73 67 60 57 52 51 50 50 51 52 58 61 64 68 71 78 87 92 96 97 80 80
92 100 93 100 100 100 100 85 88 92 88 90 100 93 88 81 80 93 100 99 87 80 82 73 68 64 60 62 67 70 70 72 75 80 86 95 96 100 100 82 81 84 89
92 100 100 94 100 100 100 100 95 87 93 99 100 100 100 100 100 100 100 100 100 97 93 84 84 86 84 81 82 84 77 90 92 93 100 100 100 100 84 90 84 78 70
100 98 100 100 100 100 100 98 98 96 95 98 96 100 100 100 100 100 100 100 100 100 100 93 87 94 100 100 100 100 100 94 100 100 100 100 90 89 95 98 90 76 97
100 100 100 100 100 100 100 100 100 84 93 94 99 100 100 100 100 100 100 100 100 91 87 91 89 82 89 100 100 78 78 96 100 96 96 99 87 89 95 100 85 99 100
100 100 100 100 100 100 100 100 99 99 89 85 95 100 100 100 100 100 100 100 100 100 100 100 100 100 100 100 100 100 99 90 97 100 100 100 94 96 89 90 96 100 100
100 100 100 100 100 100 100 100 100 100 100 99 100 100 100 100 100 100 100 100 100 100 100 100 100 100 100 99 100 92 99 92 93 100 99 100 100 96 91 93 95 99 100
100 100 100 100 100 100 100 100 100 100 100 100 100 100 100 100 100 100 100 100 100 100 100 97 96 84 76 86 90 68 87 100 99 100 100 100 100 85 83 87 100 100 100
100 100 100 100 100 100 100 100 100 100 100 100 100 100 100 98 100 100 100 100 100 97 100 100 100 92 87 71 89 95 95 100 98 100 100 100 100 100 100 100 100 100 100
78 93 100 100 100 100 100 100 97 100 100 100 100 100 100 100 100 100 100 100 100 100 100 92 90 91 88 93 100 99 96 100 99 91 100 100 97 100 100 100 95 100 100
62 77 85 78 86 98 100 100 100 100 100 100 100 100 100 100 100 100 100 99 97 100 100 100 100 96 89 88 98 96 82 85 76 100 96 100 100 100 100 100 100 100 100

GFSSE_250_rhum_072.txt.gz
RH
49 35 38 35 27 37 45 32 32 34 34 35 34 33 32 31 31 33 32 32 32 32 31 31 35 42 48 52 60 63 56 58 53 49 42 33 33 33 31 30 25 24 23
60 55 51 55 39 57 64 56 37 36 36 36 36 36 41 46 44 42 40 38 36 34 30 31 37 46 51 62 66 71 62 65 61 57 51 42 34 32 32 30 28 25 24
93 90 69 76 72 66 73 58 44 35 35 34 37 41 47 48 38 40 36 31 34 32 33 31 37 49 57 70 77 78 70 76 68 60 55 46 34 31 32 31 29 26 25
73 100 95 90 92 79 78 72 55 46 40 38 35 36 39 46 38 39 37 38 41 38 34 31 33 48 68 82 81 84 78 77 72 64 57 47 35 34 32 31 30 28 27
67 82 100 89 82 79 74 73 59 59 56 53 44 36 37 47 42 41 45 50 50 43 34 30 34 49 68 87 84 87 82 81 80 66 53 48 39 37 31 33 32 30 29
78 78 85 87 80 72 76 68 53 58 61 58 58 44 42 47 44 48 48 52 53 48 38 31 30 40 56 77 86 87 94 88 79 62 52 46 41 33 36 36 34 33 33
74 70 71 88 86 77 76 75 68 64 64 64 62 50 45 44 49 52 49 52 54 53 42 33 31 32 51 71 77 88 85 74 67 61 52 44 36 37 39 37 35 34 34
77 72 75 89 90 87 92 91 68 57 59 67 63 55 50 51 57 57 52 46 50 55 45 33 29 29 46 68 79 75 71 65 60 60 52 43 40 41 41 40 38 37 34
100 91 93 90 92 96 92 91 75 68 60 66 64 64 63 62 62 59 54 46 46 45 48 38 28 27 40 55 65 66 64 59 57 56 50 43 39 40 42 41 41 40 39
100 100 99 99 79 89 87 85 80 73 64 64 63 63 72 69 51 50 53 51 49 44 45 43 30 27 34 48 53 55 53 50 52 52 52 42 38 40 42 44 45 44 38
100 100 100 100 98 95 89 82 87 80 75 71 75 61 69 66 49 50 55 55 51 47 44 45 39 29 28 32 37 39 40 39 39 38 37 34 34 39 41 43 44 46 52
97 100 100 100 100 100 94 84 87 87 88 82 76 81 70 60 55 58 57 56 57 49 53 46 47 41 33 29 30 30 31 32 33 34 34 34 38 43 45 47 62 71 76
79 89 100 100 100 100 98 100 90 97 94 93 83 78 71 67 63 63 57 55 58 55 52 49 48 46 43 38 33 32 33 35 39 39 40 44 48 53 62 73 83 78 79
95 96 91 100 100 100 100 100 100 96 96 81 87 79 83 77 69 70 66 55 60 63 61 61 60 59 52 50 47 45 44 45 47 52 56 63 62 68 78 88 95 88 87
95 68 78 90 94 99 96 100 100 100 93 93 75 86 98 95 85 96 96 83 75 75 78 77 73 66 67 60 55 57 60 64 69 66 70 69 72 82 93 100 98 82 84
100 80 67 97 100 96 87 79 100 100 100 100 94 78 71 100 100 100 97 82 83 77 80 87 86 84 77 75 75 76 77 84 80 80 81 86 89 95 100 100 95 86 82
100 100 95 88 83 100 99 88 100 100 100 100 100 100 89 76 96 85 97 100 92 95 97 98 100 96 90 85 83 84 91 95 95 90 71 99 89 100 100 100 88 82 92
100 100 100 100 100 85 81 99 95 100 100 100 100 100 100 96 94 100 100 100 100 100 100 100 100 100 100 97 98 100 98 93 91 85 88 100 100 100 100 93 79 82 85
72 100 100 100 100 85 70 87 100 100 100 100 100 100 96 100 98 97 100 100 100 100 100 100 100 100 100 100 100 100 100 100 100 100 100 100 100 98 88 90 75 85 94
91 100 100 93 100 94 84 85 94 100 100 100 100 100 100 100 100 100 100 100 100 100 100 100 100 100 100 99 100 100 100 100 100 100 92 100 100 91 88 84 94 94 95
86 94 93 83 88 100 100 98 100 92 100 99 96 100 100 100 100 100 100 100 100 100 100 100 100 100 100 100 100 100 97 100 98 93 81 80 86 82 91 100 100 100 99
100 98 98 100 94 99 94 100 100 100 100 100 100 100 100 100 100 99 100 100 100 100 100 100 100 100 100 100 100 100 100 87 75 76 78 72 65 84 92 93 95 90 100
100 100 100 100 100 97 90 100 99 96 88 89 81 73 97 100 98 100 100 100 100 100 100 100 100 94 98 100 100 99 90 86 91 99 99 90 85 85 69 82 89 95 100
100 100 100 100 99 98 91 99 100 100 100 97 100 98 100 79 74 90 92 97 100 91 84 79 75 80 80 82 95 98 100 100 82 97 85 99 99 100 100 95 93 100 100
100 100 100 100 100 100 100 84 100 100 100 100 100 100 100 97 100 100 100 100 100 100 99 100 100 100 100 100 93 81 87 100 100 98 100 100 100 100 100 100 100 100 100
92 100 100 100 100 100 100 100 100 100 100 100 100 100 100 100 100 97 99 98 91 78 79 88 98 97 90 99 100 100 100 100 100 100 100 100 100 100 100 100 100 100 100

GFSSE_250_rhum_075.txt.gz
RH
43 43 47 44 41 52 36 30 26 27 28 26 28 32 31 31 30 29 29 36 36 39 37 34 32 30 31 41 49 59 66 76 74 70 72 69 62 57 48 34 32 30 28
48 48 47 50 44 40 38 30 28 46 39 30 28 28 30 30 33 33 43 36 35 32 32 34 34 32 32 46 57 66 78 86 75 76 77 74 65 58 49 40 38 29 29
48 51 53 53 58 39 41 45 39 61 60 50 32 28 30 30 32 34 42 38 35 36 38 40 39 32 31 39 53 77 88 91 83 79 79 78 69 55 48 41 32 32 32
55 60 62 60 80 84 77 68 65 65 67 51 42 32 31 32 32 34 40 41 38 42 45 45 42 33 30 33 49 69 87 90 85 88 82 76 64 54 46 38 35 38 36
73 72 74 80 75 100 94 95 93 84 72 55 48 43 40 37 34 32 36 41 42 42 40 45 46 36 30 31 39 56 73 80 80 81 76 65 62 56 46 40 40 39 36
90 77 78 90 79 88 100 90 83 88 78 59 51 53 48 47 41 36 38 39 46 46 39 45 48 38 34 31 31 48 70 75 92 78 69 61 58 53 46 41 37 30 28
79 73 75 85 77 78 98 100 90 80 77 65 60 58 62 59 47 40 39 44 50 48 39 40 46 44 34 28 27 38 56 69 73 69 62 58 54 50 45 37 32 30 32
65 76 76 76 77 78 80 85 92 84 84 71 73 63 62 60 57 44 42 50 52 44 42 42 41 45 39 30 26 31 44 54 57 56 50 48 44 43 41 36 32 36 42
96 86 83 84 83 90 84 89 100 96 96 90 85 59 59 59 59 54 51 57 49 44 44 44 42 47 42 32 27 29 37 42 44 42 41 35 35 37 36 36 42 46 52
100 100 100 100 99 100 100 97 100 100 100 100 86 70 69 64 59 59 55 61 47 46 48 45 39 42 44 39 31 29 30 30 32 32 30 30 34 38 42 45 48 54 67
95 91 94 100 100 100 100 100 100 97 95 92 85 77 78 72 64 62 59 55 49 49 48 47 46 41 41 40 37 36 33 30 30 30 33 40 46 48 50 55 57 64 72
95 100 100 100 100 100 100 100 100 100 99 94 89 82 82 77 71 69 66 61 56 56 52 50 48 47 46 46 46 46 46 43 42 42 42 45 50 56 60 67 71 78 86
97 100 100 100 100 100 100 100 98 100 100 97 92 80 89 87 79 81 74 67 61 64 56 53 58 59 61 63 61 62 58 52 51 51 54 59 68 68 72 68 75 94 79
99 98 100 100 100 100 100 100 100 100 100 100 99 87 87 84 71 100 84 85 76 70 75 78 70 74 74 76 76 72 68 71 67 69 69 74 82 83 91 80 92 100 100
100 100 84 71 96 100 100 97 100 100 100 100 100 100 100 95 80 88 95 100 81 78 90 88 76 67 68 75 86 98 98 95 86 87 86 95 88 94 93 95 100 100 100
100 100 100 100 90 96 100 100 86 97 100 99 98 100 100 100 99 93 96 98 98 100 95 80 78 86 90 100 100 100 100 100 100 100 95 88 99 100 100 100 95 96 82
100 100 100 100 100 100 100 76 57 91 100 100 100 100 100 100 100 100 100 95 100 92 99 99 100 100 100 100 100 100 100 100 100 100 100 100 100 100 100 87 95 91 90
100 98 100 100 100 100 97 100 88 56 56 85 100 100 98 98 100 100 100 100 100 99 93 96 100 100 100 100 100 100 100 100 100 100 100 100 93 96 94 88 94 75 83
100 100 100 100 100 96 96 100 100 93 49 47 50 93 100 100 100 100 100 100 100 100 100 100 100 100 100 100 100 100 100 100 98 96 95 93 91 93 86 76 79 86 74
94 90 100 100 100 76 95 98 89 90 86 92 87 91 100 100 100 100 100 100 100 100 100 100 100 100 100 100 100 100 100 100 94 87 100 99 95 93 86 96 96 93 92
100 74 87 100 100 83 99 100 100 100 92 80 100 100 100 100 100 100 100 100 100 100 100 100 100 100 100 100 100 100 100 97 94 89 92 90 93 87 100 79 98 100 96
72 77 100 100 95 96 100 100 100 100 100 95 99 100 100 100 100 100 100 100 100 100 100 100 100 100 100 100 100 100 92 71 76 79 78 81 88 100 99 100 94 89 99
100 78 84 100 94 100 100 100 100 100 100 77 78 77 100 100 100 100 100 100 100 100 99 100 98 93 100 98 74 76 76 73 74 82 87 99 99 94 99 92 100 100 97
100 99 98 86 100 97 98 99 91 99 100 100 100 99 100 100 100 100 100 99 98 93 96 87 76 64 67 69 65 59 54 59 100 100 100 100 100 100 100 100 100 100 100
100 100 100 90 87 80 71 84 100 77 94 100 100 100 100 97 97 100 93 91 78 72 74 69 61 58 51 57 64 65 90 96 96 100 100 100 100 100 100 100 100 100 100
100 100 100 100 89 99 97 99 97 100 90 94 100 100 100 100 100 100 100 97 92 100 100 100 78 83 80 88 85 87 86 100 81 93 88 99 100 100 100 100 100 100 100

GFSSE_250_rhum_078.txt.gz
RH
61 43 44 47 50 40 38 47 48 38 29 26 24 25 24 24 28 30 31 31 30 39 33 31 29 29 32 33 31 36 48 58 78 88 85 78 76 75 66 55 48 38 36
94 51 50 52 54 46 49 48 42 46 32 27 36 39 33 24 25 28 28 30 31 42 37 33 34 35 34 33 29 32 42 60 76 93 90 74 75 69 63 60 48 39 40
99 65 59 55 53 50 50 56 55 40 40 33 50 58 55 39 26 26 26 29 33 39 41 38 35 36 38 35 30 30 31 50 73 91 75 83 77 64 59 54 45 42 37
84 80 71 62 52 52 53 54 57 45 55 48 53 66 63 45 33 27 27 28 30 32 40 40 35 33 39 36 32 31 30 39 52 73 65 78 68 62 56 52 46 38 30
75 74 78 66 55 50 53 57 72 90 92 85 85 76 72 49 42 37 37 36 30 31 35 39 37 36 42 44 35 32 28 30 38 55 65 62 59 55 51 43 35 31 33
92 77 76 78 69 54 61 61 70 96 100 96 90 88 78 59 52 50 47 43 37 32 34 39 35 33 36 44 40 33 28 27 35 47 52 49 46 44 40 32 32 35 41
95 86 74 82 79 70 79 82 82 80 100 97 91 78 69 62 60 57 57 49 46 36 40 43 35 36 37 37 42 38 28 27 31 36 39 42 38 34 31 33 37 44 46
84 90 87 80 84 90 82 84 87 72 97 98 86 82 66 67 70 65 60 55 50 46 48 45 37 39 40 31 36 38 31 28 28 30 32 33 32 32 40 44 43 41 50
91 76 94 88 86 98 95 84 93 82 79 78 76 83 79 66 72 64 63 62 58 50 51 49 42 42 40 36 34 30 31 30 31 30 30 29 32 36 42 47 53 54 51
100 100 91 92 73 91 97 83 96 98 92 87 91 92 91 66 68 74 68 70 63 61 52 50 46 45 42 38 38 41 39 40 42 44 41 40 42 44 45 53 58 61 68
100 100 100 100 100 100 100 100 100 100 100 100 94 98 100 85 66 70 74 75 68 67 57 52 55 52 51 44 42 46 53 58 59 56 51 49 50 53 57 63 68 75 76
100 100 100 100 100 88 100 100 100 100 100 100 100 95 94 84 72 80 85 81 80 70 70 65 58 58 58 58 64 67 71 73 73 71 69 70 67 68 70 72 73 94 99
100 100 100 100 93 100 100 100 99 92 100 100 97 88 94 90 84 83 82 88 82 78 70 68 70 64 68 66 64 60 63 67 81 92 92 95 88 80 76 78 92 100 100
100 100 100 96 86 84 73 75 98 96 100 100 100 100 100 100 94 92 80 74 73 70 71 75 72 61 70 81 75 70 66 87 95 99 100 100 100 98 90 98 100 100 99
100 100 100 86 100 100 100 100 100 100 100 100 100 100 100 100 100 100 100 88 83 82 80 100 100 98 99 92 78 79 83 100 100 100 100 100 100 100 100 100 100 96 89
100 100 100 96 100 99 99 100 99 100 100 100 96 84 83 88 89 100 100 100 100 94 90 82 79 90 99 100 100 100 100 100 100 100 100 100 84 78 100 100 100 94 95
100 100 100 68 98 92 100 93 98 70 93 90 90 71 65 76 90 100 100 97 93 95 100 100 100 100 100 99 90 100 100 100 100 100 100 92 86 90 97 100 100 76 67
100 100 100 100 100 100 100 100 100 92 82 98 65 57 53 51 88 100 100 100 100 100 100 100 100 100 100 100 100 100 100 100 100 100 100 100 100 91 86 70 80 77 79
100 100 100 100 100 100 100 100 100 100 78 80 67 62 54 63 95 100 100 100 96 100 99 100 100 100 100 100 100 100 100 100 100 97 100 100 87 88 82 75 75 76 82
100 100 100 100 100 100 98 87 100 100 100 100 100 85 99 77 80 99 99 97 100 100 100 100 100 100 100 100 100 100 100 100 100 100 95 95 77 68 67 60 67 82 87
100 100 100 100 100 100 100 100 92 100 100 100 100 84 71 74 77 93 96 83 100 100 100 100 100 97 100 100 100 100 98 84 73 83 60 55 68 69 62 66 70 75 93
100 100 100 100 100 100 100 100 100 100 99 100 100 98 100 100 81 76 90 100 100 100 100 100 100 100 99 97 96 85 82 61 66 64 65 59 63 63 56 58 79 89 97
100 100 100 100 100 94 100 100 100 100 100 85 84 100 95 74 85 81 93 100 100 100 100 100 100 100 100 92 75 78 77 68 64 62 61 54 59 78 82 92 97 97 93
100 98 100 96 100 100 100 100 100 100 100 100 100 100 100 100 86 85 91 88 88 85 97 98 89 90 99 92 78 67 61 52 40 38 42 47 68 92 88 97 100 92 96
99 100 100 100 100 100 100 100 100 100 95 100 100 100 100 99 100 100 100 100 100 90 87 77 62 59 54 59 54 54 47 40 40 57 81 96 95 100 100 100 100 100 100
100 100 100 100 100 100 100 100 99 99 100 100 100 100 100 100 100 100 100 100 100 100 95 86 84 62 48 45 40 43 83 91 68 80 92 100 100 100 100 98 89 100 100

GFSSE_250_rhum_081.txt.gz
RH
88 81 88 54 38 45 48 51 47 37 49 45 36 30 25 25 27 24 25 28 30 30 28 32 38 36 32 31 32 30 28 26 28 39 64 88 66 70 68 59 52 44 40
98 92 92 87 47 42 44 47 46 42 43 46 48 34 27 38 44 47 31 28 30 29 29 32 40 40 30 29 31 33 28 27 24 33 52 68 56 64 60 53 47 43 34
86 100 92 94 78 48 46 49 48 45 51 51 46 41 34 44 58 56 44 30 29 29 30 32 38 37 34 29 33 34 31 28 27 28 38 54 54 54 52 46 39 30 30
85 92 94 93 100 77 51 55 51 52 51 55 45 43 48 48 62 65 47 38 32 32 36 31 34 35 36 28 28 34 34 30 26 28 36 46 45 46 45 38 31 31 36
86 88 87 98 94 96 60 59 50 51 52 54 57 72 78 85 78 71 53 46 44 43 41 37 36 35 37 31 30 32 34 31 26 25 28 34 37 38 34 33 33 40 39
69 92 81 97 90 91 73 66 57 50 53 55 66 99 100 89 84 70 64 49 52 51 46 41 37 42 38 35 36 32 35 36 29 26 26 27 30 33 35 38 42 44 47
80 80 82 86 100 92 86 85 71 57 54 62 68 71 94 86 71 62 59 57 57 56 51 49 45 48 40 39 38 35 33 36 31 28 28 29 29 30 31 35 37 45 51
82 85 67 75 92 92 82 80 77 70 60 79 84 83 95 99 79 69 63 59 66 58 54 60 53 47 44 43 41 36 35 32 32 32 35 38 36 35 39 41 46 46 53
90 90 71 67 70 92 83 78 83 82 71 84 88 96 88 92 80 74 66 59 65 69 63 65 58 59 47 44 44 42 39 42 49 52 53 54 50 48 48 49 51 52 52
100 100 100 68 74 100 96 88 80 86 87 91 96 99 96 84 87 85 74 68 58 65 65 70 65 61 54 50 45 47 44 46 51 55 61 64 64 61 60 63 61 63 66
100 100 100 100 99 100 100 100 92 86 97 100 100 100 96 92 83 86 92 81 76 66 65 75 74 63 58 56 51 52 56 60 60 57 52 76 86 90 98 96 98 87 74
92 100 100 100 100 100 100 100 99 96 100 100 100 100 100 100 98 94 95 92 85 73 80 82 84 68 62 60 57 52 56 56 53 59 68 89 88 86 90 100 100 91 74
99 100 100 100 100 100 100 100 100 100 100 100 85 79 99 96 98 100 92 80 80 91 82 80 64 68 63 65 62 58 67 81 70 62 73 100 91 90 98 100 89 61 74
77 100 100 100 100 100 96 100 100 100 99 76 74 80 94 90 100 98 98 100 100 95 91 90 86 87 78 79 94 83 92 74 75 74 99 90 98 100 100 71 56 58 68
100 100 100 100 95 100 100 100 97 95 86 69 68 94 98 100 100 100 100 100 100 100 100 99 93 90 83 80 82 70 76 96 99 99 89 99 91 100 83 71 74 73 80
100 100 100 100 100 100 100 100 100 100 100 100 100 98 100 94 83 74 77 91 79 67 88 100 100 88 78 92 96 100 100 100 94 95 100 98 95 100 100 86 81 78 70
100 100 100 100 100 100 100 100 94 100 100 96 94 100 100 86 63 54 68 59 72 84 84 91 100 100 96 99 99 100 100 100 93 98 100 100 100 100 100 82 76 71 76
75 100 100 100 100 100 79 100 100 100 99 100 95 100 100 100 81 74 58 57 77 92 89 99 100 86 99 99 100 96 100 100 100 91 87 90 90 98 97 73 62 67 71
78 100 100 100 77 77 98 100 100 100 100 100 92 100 100 99 80 66 64 83 86 100 100 100 98 98 91 100 100 100 100 100 100 97 82 70 78 78 78 62 54 61 59
100 98 100 100 100 100 98 100 100 100 100 100 99 100 100 83 62 52 66 94 100 100 100 96 91 100 100 100 100 89 96 82 71 73 71 82 69 77 71 62 46 42 37
100 100 100 100 100 100 100 100 100 100 100 100 72 99 100 100 100 83 66 64 97 91 85 74 83 100 87 92 86 91 79 77 65 66 67 74 72 77 69 55 44 34 36
100 100 100 100 100 100 100 100 100 90 100 100 100 99 100 100 93 99 90 93 85 75 68 64 58 81 100 89 69 85 85 65 68 58 59 64 79 78 63 49 38 43 51
100 100 100 100 100 100 100 100 100 100 100 94 100 100 100 99 100 100 100 95 95 86 80 59 47 60 65 81 66 64 72 68 62 65 62 54 44 36 37 45 37 73 73
100 100 100 100 100 100 100 100 100 100 100 100 100 100 95 81 95 100 100 100 100 100 99 78 67 65 52 47 49 50 50 56 64 62 48 42 32 33 34 52 83 100 100
100 100 100 100 100 100 100 100 100 100 100 100 100 100 100 100 100 90 98 89 64 74 82 76 52 51 78 74 50 42 42 40 36 50 49 39 47 68 100 92 72 100 94
100 100 100 100 100 100 100 100 100 100 100 100 100 100 100 100 100 100 100 95 63 60 60 65 72 83 96 84 66 58 75 74 72 54 67 67 89 84 100 100 97 100 94

GFSSE_250_rhum_084.txt.gz
RH
98 76 76 74 73 74 41 45 58 55 50 40 43 55 47 37 25 26 35 39 35 28 31 30 30 31 39 39 30 29 28 31 28 26 23 41 49 56 55 55 51 42 29
100 100 88 86 83 83 81 42 46 50 49 44 38 38 43 34 27 34 49 54 52 35 29 28 31 33 36 37 32 28 28 30 29 26 25 30 42 52 52 51 44 32 29
77 100 99 91 93 86 88 81 42 42 44 45 43 49 42 39 38 35 49 60 53 39 34 35 39 35 35 37 34 27 25 28 30 28 24 24 36 47 47 40 33 32 38
84 100 100 98 100 100 89 94 76 44 46 45 44 50 50 41 44 45 50 63 61 44 47 46 43 39 38 37 39 33 34 31 35 30 27 26 28 36 37 36 35 39 41
77 99 99 100 100 100 97 98 96 75 50 50 45 49 53 50 49 66 66 67 60 52 49 50 49 42 36 40 41 37 37 34 34 36 26 27 27 28 32 34 36 37 41
78 70 98 99 96 100 99 92 100 95 71 56 48 47 50 69 99 100 80 72 56 52 55 52 50 53 49 44 42 40 39 35 31 32 33 28 27 28 31 32 35 40 44
75 76 78 100 91 88 94 94 97 100 90 64 59 51 52 58 76 94 86 75 63 58 54 58 52 51 55 51 45 42 40 40 36 33 32 35 41 41 38 38 42 46 49
82 86 78 72 90 84 80 88 94 100 99 79 74 63 54 61 77 99 86 89 71 65 60 58 65 60 54 53 53 46 44 42 38 42 46 49 53 51 47 47 50 56 61
66 86 93 84 70 86 83 74 71 99 100 87 82 84 66 67 84 83 100 97 78 65 62 68 70 69 59 63 52 53 47 42 40 42 48 51 52 59 90 93 100 100 100
100 83 65 87 86 87 85 79 74 74 100 95 90 88 77 76 81 84 85 78 76 74 74 73 70 67 64 71 65 57 53 48 50 53 57 58 59 67 87 71 57 69 100
100 96 86 96 99 100 100 100 86 66 92 100 92 88 81 82 84 90 74 80 81 78 88 86 80 75 75 82 77 63 58 56 54 53 57 54 53 56 99 76 71 88 84
84 64 78 100 100 100 100 100 99 77 84 100 100 90 90 92 84 86 87 98 94 99 92 72 73 88 78 74 77 70 64 64 60 61 75 63 53 71 77 75 100 71 61
49 27 97 100 100 100 100 100 100 96 98 100 100 98 95 100 100 93 100 100 100 100 94 68 70 78 88 70 66 82 73 69 77 73 81 76 71 81 67 94 98 84 82
100 93 100 100 100 100 100 100 100 100 100 100 100 100 100 100 99 88 72 64 81 84 86 81 85 80 84 90 75 84 76 87 97 77 58 78 97 77 97 94 100 100 92
100 100 100 100 100 100 100 100 100 100 100 100 100 100 100 100 98 90 79 91 94 76 87 95 100 99 88 80 94 87 63 66 71 95 100 100 100 88 88 96 97 100 90
85 100 100 98 100 100 100 100 100 100 93 97 95 100 100 100 92 75 90 100 88 95 100 91 91 76 79 79 81 79 85 86 72 86 100 77 63 75 93 76 84 93 88
44 100 100 100 93 100 100 100 100 86 100 100 100 100 100 100 100 100 97 80 74 66 57 48 61 91 77 72 87 83 75 81 89 91 78 79 86 81 90 92 91 86 82
42 100 100 100 95 100 100 100 87 99 100 84 96 100 100 100 100 100 100 82 61 46 53 71 95 100 100 91 100 95 91 82 73 98 76 66 65 75 92 90 85 82 80
34 82 100 100 100 100 100 100 99 100 100 100 100 100 100 100 96 89 100 73 64 76 81 84 95 100 100 94 100 100 97 93 88 80 77 65 61 60 68 70 76 78 81
100 100 100 100 100 100 93 100 100 100 100 100 100 100 100 94 92 86 94 100 85 84 88 95 100 100 100 97 100 97 92 83 67 63 74 83 77 79 81 76 75 72 62
100 100 100 100 90 95 100 100 100 100 100 100 100 100 100 100 93 77 54 96 83 85 96 85 100 99 87 60 79 72 63 64 49 52 63 62 74 61 53 69 76 68 59
100 100 100 100 95 100 100 100 100 100 100 99 100 100 100 100 100 100 99 99 100 90 100 100 100 99 86 62 42 43 39 32 39 40 44 54 72 48 42 44 52 35 34
100 100 100 100 99 100 100 100 100 100 100 100 100 100 100 100 100 100 100 100 100 100 100 86 86 82 59 42 33 30 30 40 42 48 47 38 40 34 34 44 39 36 38
100 100 100 100 100 100 100 100 100 100 86 100 99 100 100 100 99 100 100 100 100 100 86 77 69 71 60 53 42 43 38 34 32 30 32 30 37 33 34 49 60 46 54
100 100 100 100 100 100 100 100 100 100 100 100 100 100 100 100 100 100 100 93 95 100 100 100 100 100 100 96 78 44 36 31 29 27 28 33 40 53 58 59 42 61 67
100 100 100 100 100 99 100 100 100 100 100 100 100 100 100 98 100 100 100 100 100 100 100 100 100 92 86 66 55 73 62 40 46 33 42 69 75 83 72 80 92 70 59

GFSSE_250_rhum_087.txt.gz
RH
71 84 100 97 64 67 67 66 46 44 62 59 56 46 43 49 42 38 26 28 45 52 50 35 29 28 30 31 33 33 32 28 28 30 28 24 23 29 33 40 41 35 28
53 62 89 100 84 73 74 72 70 57 42 55 52 42 34 36 39 32 26 34 51 56 49 37 31 31 34 35 36 35 34 32 33 32 30 25 25 28 32 36 35 32 35
61 59 67 100 100 90 80 80 79 79 63 40 41 45 42 44 39 38 36 36 43 58 54 44 46 48 42 39 38 39 39 34 34 28 31 27 26 29 32 32 32 35 38
60 60 64 83 100 100 97 88 90 83 87 74 41 43 44 45 49 45 41 45 48 55 54 44 47 50 48 43 36 39 40 39 39 34 30 31 26 26 26 28 34 35 36
57 52 56 70 97 100 100 98 94 94 94 93 80 46 45 42 50 55 50 55 63 63 54 49 49 48 49 52 50 46 40 40 41 40 32 31 32 31 30 29 34 34 37
46 46 52 60 63 92 100 100 98 99 92 93 87 73 55 49 46 52 73 100 99 73 59 54 52 47 52 53 51 49 49 44 42 42 38 37 32 37 44 40 38 41 47
43 46 47 54 57 71 98 100 100 99 97 92 98 87 74 60 51 50 58 74 91 78 72 63 59 56 55 59 62 55 52 50 44 42 38 40 46 47 51 53 70 80 79
32 52 50 56 60 62 78 87 75 82 93 97 95 90 82 76 66 54 55 62 97 90 81 75 63 61 62 61 62 62 60 55 51 45 42 39 47 49 53 59 83 78 57
24 57 68 69 70 74 71 95 89 76 76 91 92 86 79 95 83 77 61 65 85 100 99 87 67 66 68 67 63 58 64 61 56 53 49 45 48 52 56 51 65 83 62
11 40 55 69 74 70 68 69 100 89 75 71 79 82 78 84 74 81 82 72 80 79 79 72 63 65 72 70 70 64 61 70 62 58 56 53 53 60 56 52 61 62 64
15 11 57 90 90 85 72 70 73 98 99 78 76 78 75 84 80 83 93 93 80 89 82 67 71 74 70 63 74 73 59 61 68 66 63 63 60 58 66 62 59 66 69
15 13 14 60 98 97 90 94 91 96 92 90 85 88 80 75 85 86 84 74 82 77 92 90 100 100 74 65 60 70 72 56 65 70 69 73 67 61 66 57 74 71 83
15 18 27 59 58 98 100 100 100 94 100 99 100 100 98 92 87 88 87 77 95 100 90 100 100 91 74 63 66 82 79 72 63 69 72 93 100 76 56 100 100 80 76
16 19 22 60 83 100 99 98 100 100 100 100 100 100 100 99 98 100 94 99 100 99 95 73 73 64 59 70 79 99 100 88 69 75 66 61 63 60 94 100 80 66 76
18 14 18 81 95 100 99 90 100 100 100 100 100 100 100 100 100 100 100 100 100 100 91 88 76 66 63 69 100 100 89 99 100 86 64 66 50 62 68 68 52 56 72
18 18 75 100 100 100 100 93 100 100 100 100 100 100 100 100 100 100 100 97 100 100 98 95 65 62 86 98 94 97 77 69 59 74 76 67 70 71 68 67 75 73 74
17 22 100 100 100 100 98 92 84 100 100 100 100 100 100 100 96 99 100 100 100 100 97 75 65 72 90 86 53 60 74 73 82 76 100 95 86 86 82 69 76 63 82
14 26 100 100 100 100 77 76 100 100 100 100 100 100 98 97 100 98 98 100 100 100 100 89 60 68 68 54 58 74 84 85 96 99 100 99 85 81 70 54 51 62 65
19 31 45 100 93 100 98 100 100 100 100 100 100 100 98 85 96 99 100 100 100 100 100 76 39 47 56 62 73 93 89 87 100 100 100 95 87 72 57 39 27 31 62
12 24 34 28 86 100 100 100 100 100 100 100 100 100 90 77 98 100 100 100 100 100 100 85 46 43 81 90 87 98 100 100 100 100 96 72 44 30 24 24 27 48 55
13 23 26 59 100 100 100 100 100 100 100 100 100 100 100 100 100 100 100 100 100 100 100 99 72 52 63 100 100 90 78 83 84 68 56 53 38 33 30 24 27 40 37
16 18 35 100 100 100 100 100 100 100 100 100 100 100 100 100 100 100 100 100 100 99 96 82 75 89 100 100 91 96 95 80 73 57 45 49 42 40 34 25 28 27 28
24 24 34 100 100 100 100 100 100 100 100 100 100 100 73 93 100 100 100 100 100 100 100 100 100 100 100 98 76 60 56 44 63 49 63 47 32 37 35 38 29 29 28
45 42 75 100 100 100 100 100 100 100 100 100 100 100 100 100 100 100 100 95 100 100 100 100 100 100 100 100 75 52 65 63 45 30 28 33 35 46 43 34 32 32 28
100 100 100 100 100 100 100 100 100 100 100 100 100 100 100 100 100 100 100 100 100 100 100 100 100 100 100 100 100 73 91 60 68 75 84 70 52 48 30 30 33 64 44
100 100 100 88 100 100 100 100 100 100 100 100 100 100 100 96 100 100 100 100 100 100 100 100 100 100 100 100 100 100 99 100 95 81 64 63 45 39 39 50 87 87 80

GFSSE_250_rhum_090.txt.gz
RH
52 56 80 98 100 100 72 56 50 53 46 34 35 35 46 50 53 50 44 36 27 39 43 44 36 32 29 29 31 32 32 33 32 30 26 28 25 22 24 27 28 26 29
54 46 54 68 99 100 100 72 66 65 64 46 42 54 56 56 43 43 40 30 26 40 46 48 38 38 42 41 40 36 33 35 32 32 31 26 27 24 22 24 24 26 31
63 39 44 46 66 86 100 98 78 72 71 68 57 40 44 45 41 43 39 39 39 39 43 52 43 38 42 44 44 42 39 38 38 36 34 29 28 25 26 24 25 30 34
56 50 41 44 48 64 88 99 85 74 78 73 71 69 50 40 44 46 49 44 43 46 48 55 52 46 46 46 49 47 46 45 42 38 36 35 29 29 28 28 27 31 35
58 39 36 41 42 46 63 86 100 92 82 86 78 71 76 58 44 44 47 55 52 48 61 71 61 53 50 44 46 49 51 49 46 45 40 39 35 32 33 48 54 46 51
21 36 37 38 42 41 47 67 76 98 89 66 79 79 79 76 60 48 50 48 55 91 100 87 69 60 55 51 51 52 53 52 48 51 49 43 41 39 46 48 48 59 83
14 18 32 32 37 46 46 52 62 86 99 94 62 78 66 87 82 65 56 53 52 62 77 82 77 70 67 61 55 57 57 56 53 52 51 46 46 42 48 52 52 51 53
19 14 14 23 35 49 48 48 55 67 81 97 79 62 70 66 89 81 58 60 56 55 62 90 88 80 74 65 64 65 63 63 59 53 54 53 51 50 46 48 49 49 54
17 17 13 26 32 83 83 53 48 63 65 85 100 83 72 95 77 85 68 63 68 69 64 74 100 100 98 64 64 69 64 66 63 65 59 59 59 56 55 56 58 53 48
19 18 16 46 45 38 67 75 60 49 64 76 99 74 56 70 76 74 67 69 71 70 74 69 66 73 72 60 61 69 69 65 71 68 60 66 64 62 62 54 49 56 54
12 16 17 16 53 68 71 71 77 78 74 78 94 97 72 62 75 62 70 67 62 66 77 82 79 84 78 76 86 97 72 58 65 71 65 54 63 62 62 61 61 58 94
13 16 20 22 16 47 95 91 73 79 79 86 92 100 100 87 71 70 67 61 63 62 66 69 68 92 100 100 100 100 78 52 55 73 77 55 56 58 73 85 85 92 100
10 16 23 20 20 27 71 91 77 83 71 83 92 86 100 100 100 87 72 68 65 61 71 68 70 100 89 85 89 85 67 55 56 84 77 69 61 60 58 57 54 61 89
7 12 18 18 24 69 84 89 97 83 96 100 97 81 94 100 100 100 83 97 90 89 100 98 96 100 80 88 90 64 56 57 64 100 100 82 85 73 52 51 56 65 74
5 10 14 19 19 40 72 98 100 92 94 100 95 95 96 100 100 100 100 100 100 99 100 100 100 100 100 98 75 66 58 58 88 100 97 61 64 61 58 82 88 78 73
5 9 14 19 24 23 49 81 100 88 100 100 100 100 100 100 100 100 100 100 100 100 100 100 92 94 86 96 96 74 48 95 100 86 77 79 75 69 96 100 88 85 77
5 8 13 18 16 26 27 94 100 100 100 100 100 97 86 84 97 100 100 100 100 100 100 87 98 100 100 100 98 71 58 81 99 71 56 84 95 96 100 99 95 91 68
6 8 12 18 19 25 63 93 77 100 100 100 91 87 94 100 100 100 100 99 100 100 81 73 88 100 100 100 91 62 60 76 73 60 57 85 95 100 100 100 100 83 45
8 9 13 15 19 40 91 74 92 82 100 100 100 97 94 99 95 94 100 100 100 98 96 100 100 100 100 94 90 64 42 39 56 63 72 97 100 100 100 100 98 70 50
7 9 15 17 18 33 61 75 100 100 100 100 100 100 80 81 100 100 100 100 100 100 100 100 98 100 100 95 85 77 67 57 53 66 85 83 74 81 100 100 79 60 62
8 10 15 16 16 23 44 52 67 96 100 100 100 100 100 100 100 100 100 100 100 98 100 100 100 100 100 100 81 82 73 72 46 81 86 90 100 100 98 83 56 43 49
13 14 16 15 20 25 35 87 100 100 100 100 100 100 100 100 100 100 100 100 100 100 98 99 94 100 100 100 98 80 96 77 85 100 100 100 99 80 78 64 45 29 27
14 14 14 16 20 42 51 100 100 100 100 100 100 100 100 100 100 100 100 100 100 100 100 90 90 100 100 99 100 100 100 100 100 100 100 91 65 45 38 33 30 27 30
13 15 12 16 25 56 45 100 100 100 100 100 100 98 100 100 100 100 100 100 100 100 99 99 100 100 100 100 96 100 100 100 100 100 97 90 64 77 65 44 29 40 38
11 12 13 14 29 74 49 100 100 100 100 100 100 100 100 100 100 100 100 100 100 100 100 100 100 100 100 100 100 100 100 96 87 100 71 80 54 63 80 62 73 50 40
8 11 13 15 34 69 100 100 100 100 100 100 100 100 100 100 100 100 100 100 100 100 100 100 100 100 100 100 100 100 100 100 100 100 100 100 95 82 98 87 57 56 42

GFSSE_250_rhum_093.txt.gz
RH
45 49 60 86 91 99 95 63 55 48 42 40 36 32 33 28 26 37 45 42 42 34 30 37 39 35 31 33 35 37 36 32 36 35 36 33 26 27 24 22 22 22 23
50 43 52 58 72 92 100 96 60 59 55 50 53 37 35 42 49 50 42 42 37 28 29 36 43 42 38 37 37 41 42 40 39 40 39 36 32 26 26 24 23 23 26
51 52 36 47 53 62 84 100 99 90 65 62 61 57 40 42 50 49 38 38 37 33 32 34 43 49 43 46 42 41 45 45 45 43 42 42 37 32 25 25 26 26 28
37 62 39 35 37 45 49 57 85 86 94 68 65 64 58 52 40 41 44 46 47 40 36 43 47 52 48 48 49 45 45 47 46 46 45 43 41 37 32 30 40 52 48
27 51 49 33 32 32 37 46 56 78 86 86 64 69 68 60 60 49 44 45 46 48 45 43 62 77 58 53 52 49 51 53 53 52 47 45 44 42 40 41 52 56 50
18 31 56 40 37 32 37 38 48 59 74 84 76 63 66 70 60 67 56 46 48 49 49 55 92 89 79 63 60 58 53 54 54 58 54 52 48 44 44 41 49 51 49
40 28 27 48 52 42 39 41 45 55 63 71 88 86 69 60 81 78 69 71 55 52 53 52 61 71 82 79 68 67 59 60 60 62 64 56 51 51 49 49 48 46 49
30 25 24 28 33 48 52 43 42 45 56 57 75 87 100 97 67 84 74 83 78 59 56 54 55 65 91 97 86 89 62 54 62 57 58 64 66 57 57 58 52 52 48
30 50 49 32 21 21 19 35 38 39 47 58 58 71 99 100 100 68 75 78 78 77 62 62 61 59 63 85 98 81 67 62 70 68 57 52 61 64 64 64 56 55 53
44 23 75 50 19 18 17 17 42 41 41 50 58 66 80 100 100 100 100 90 74 80 73 71 70 64 61 61 68 70 69 73 80 82 62 51 54 65 56 54 64 64 66
40 43 57 66 27 17 14 14 24 27 40 48 54 61 65 90 100 100 100 75 71 68 69 70 69 68 69 63 74 94 100 100 100 90 74 50 48 71 61 51 53 64 71
17 57 41 44 43 21 16 15 15 24 32 57 74 57 62 77 99 100 100 100 73 67 60 67 64 69 69 71 70 100 85 73 78 87 71 54 50 72 80 63 53 58 58
24 25 24 42 41 23 16 14 16 23 37 42 57 74 63 68 94 100 100 100 100 87 73 73 70 74 80 93 85 100 78 66 81 70 66 66 60 92 100 75 63 64 64
23 13 14 19 42 21 14 18 46 64 39 44 54 60 80 81 97 100 100 100 100 100 95 86 87 87 96 100 100 100 100 100 93 74 73 63 53 85 99 86 76 68 74
18 13 18 12 24 42 22 16 53 38 36 64 69 75 75 84 88 96 100 100 100 100 100 100 97 100 100 100 100 98 100 84 59 74 82 57 74 100 97 91 84 88 83
15 17 11 9 10 14 34 35 34 35 52 67 86 91 90 90 95 92 100 99 100 100 100 100 100 100 100 100 100 100 91 80 70 88 74 76 80 99 75 56 62 97 97
14 14 8 11 13 16 28 32 50 74 82 85 82 66 79 76 85 85 96 100 100 100 100 100 100 100 100 94 100 100 100 100 84 99 78 62 69 84 81 62 58 77 99
14 13 12 21 18 13 23 30 50 94 100 100 100 97 84 99 100 94 89 93 100 100 100 100 100 91 100 100 93 84 100 99 100 98 75 51 51 50 60 58 63 84 100
13 11 10 19 23 18 19 38 100 100 100 100 100 69 87 92 88 96 100 100 85 100 100 100 100 100 95 86 100 99 100 100 99 92 87 73 66 50 41 57 62 82 100
11 11 10 20 27 18 19 26 51 95 97 84 100 100 100 75 85 100 100 100 100 100 100 100 97 88 91 100 100 100 100 100 94 91 81 88 84 76 66 78 94 88 100
11 9 15 20 17 12 18 24 34 54 100 100 100 100 98 100 100 92 100 100 100 100 100 97 94 99 100 100 100 100 100 100 83 82 78 72 79 71 89 100 96 92 96
13 10 16 20 17 12 17 25 28 43 69 100 100 100 100 100 99 100 100 100 100 100 98 100 100 100 100 100 100 97 95 100 100 83 81 85 80 95 97 100 100 94 87
12 11 14 15 20 12 17 26 26 43 97 100 72 100 100 100 100 100 100 100 100 92 100 100 100 100 100 100 100 95 100 100 100 100 100 100 81 76 88 82 72 59 60
13 14 13 16 16 11 16 24 24 38 67 97 95 100 100 100 100 100 100 100 100 100 99 100 100 99 100 100 100 100 100 100 100 100 100 100 82 89 91 96 88 73 51
13 14 15 15 16 16 19 22 26 30 49 100 100 100 100 100 100 100 100 99 100 100 100 100 100 88 100 100 100 100 100 100 93 100 100 84 82 86 100 96 62 80 61
13 14 17 17 17 19 21 21 26 32 72 100 100 100 100 99 100 100 100 100 100 96 97 100 100 100 100 100 100 100 92 90 81 100 95 94 100 95 100 95 88 86 86

GFSSE_250_rhum_099.txt.gz
RH
61 53 45 47 55 56 54 39 41 45 41 38 36 48 66 67 70 66 61 51 37 27 33 38 37 32 29 32 38 36 38 38 38 36 37 38 38 38 41 40 36 30 28
57 59 50 45 51 49 57 61 42 40 46 43 41 39 37 39 47 48 45 37 28 34 38 38 34 29 28 34 41 42 44 42 43 42 42 45 44 40 42 44 41 39 38
57 58 56 52 51 58 57 66 65 42 41 46 45 43 40 41 38 40 36 31 34 47 47 36 38 37 35 38 45 47 48 46 48 49 49 48 48 44 44 44 44 44 42
52 52 53 50 47 44 54 52 57 66 51 66 56 57 46 45 44 47 50 38 48 51 41 42 44 43 40 40 42 56 60 52 52 53 54 49 53 51 45 44 44 46 48
37 45 47 39 39 41 39 44 52 52 64 73 93 92 59 50 49 49 55 53 47 46 45 45 47 46 44 46 65 66 61 58 58 58 61 51 46 52 51 47 46 46 50
23 24 24 27 31 35 34 32 41 53 52 59 72 96 77 55 55 51 54 58 67 59 55 49 47 49 49 46 48 56 62 59 53 53 59 58 44 49 57 54 45 43 56
23 19 21 23 22 18 17 25 39 44 49 53 56 70 99 92 72 62 51 56 65 70 70 69 50 51 53 50 48 56 54 60 84 83 77 71 52 54 68 73 61 49 50
24 20 22 23 23 22 19 22 28 30 31 44 59 60 63 77 92 99 70 58 63 71 74 82 86 62 65 61 54 52 54 59 61 75 64 56 71 69 77 81 70 56 51
76 70 26 30 22 25 27 19 16 18 22 24 40 59 63 58 52 62 99 72 65 68 72 89 93 88 82 87 69 59 57 64 57 52 53 66 95 84 85 54 64 64 56
79 83 95 89 46 100 98 33 30 19 16 18 29 43 57 67 54 51 66 86 62 73 76 74 89 99 94 80 88 77 68 69 70 70 65 67 96 99 88 67 67 70 64
39 83 83 92 78 96 100 59 63 31 19 17 21 28 37 54 68 59 61 61 70 69 87 99 98 100 100 99 78 78 80 74 69 75 71 72 98 99 83 90 82 82 68
44 34 46 88 94 86 99 94 100 77 29 24 20 21 26 31 40 71 74 63 58 67 80 94 100 100 100 100 97 79 71 78 83 77 88 79 100 100 71 47 52 52 72
53 44 38 38 65 71 82 88 91 97 58 39 30 17 15 16 19 35 76 83 71 65 66 76 88 99 99 100 100 98 85 74 78 78 78 99 100 100 100 81 65 70 74
48 44 41 43 38 27 40 81 86 74 74 66 39 30 27 18 18 22 36 78 83 81 64 71 77 87 92 88 99 100 100 94 83 79 91 89 100 100 100 80 78 85 74
39 43 41 39 39 30 21 31 65 63 91 66 70 79 50 37 19 17 24 39 66 77 75 72 82 89 84 80 87 93 98 100 99 100 100 100 100 100 99 98 63 85 63
34 40 47 42 43 41 38 23 20 22 48 44 54 66 72 56 34 15 15 19 23 58 76 79 82 74 86 92 85 89 93 96 100 100 100 100 100 100 73 64 73 83 64
28 45 39 40 42 38 38 28 21 18 35 34 29 60 98 65 41 24 15 16 16 23 69 86 96 93 84 95 100 100 99 100 100 100 100 100 91 100 100 71 80 81 69
32 34 39 29 25 28 31 30 27 24 27 29 25 25 53 48 49 42 22 19 16 21 61 70 92 98 100 100 100 100 100 100 100 100 100 100 99 98 100 100 86 69 61
27 34 33 24 20 21 27 27 35 37 37 28 34 21 18 36 48 48 26 19 14 40 88 92 88 99 100 100 100 100 100 100 100 100 100 100 97 83 74 73 86 72 52
27 29 27 30 30 23 23 25 27 32 38 36 36 22 16 31 30 34 27 20 20 19 64 83 54 100 100 100 100 100 100 100 100 100 100 100 100 95 100 100 100 66 45
19 25 29 33 33 18 24 25 23 22 28 44 38 31 23 20 22 24 27 26 43 56 92 100 95 79 100 100 97 100 100 100 100 100 100 100 100 99 100 100 98 64 75
14 17 22 24 27 22 19 19 17 23 36 45 39 35 53 31 23 30 24 37 71 100 100 100 100 100 96 99 100 100 100 100 100 100 100 100 100 100 100 100 90 91 88
9 15 20 22 23 18 16 16 16 24 34 35 29 34 33 50 50 26 31 27 40 91 100 100 100 100 98 100 100 100 100 100 100 100 100 100 100 100 100 92 88 100 100
5 7 9 11 10 11 8 8 9 17 23 33 36 31 28 54 34 40 32 28 46 51 76 100 100 100 100 100 100 100 92 100 100 100 100 100 100 100 96 100 100 100 90
2 3 4 4 5 5 5 6 9 16 25 28 36 34 37 40 39 37 43 38 70 100 100 100 100 100 100 100 100 100 100 100 100 100 100 89 76 80 98 100 100 83 66
3 3 3 4 4 5 6 7 11 19 21 24 30 42 37 32 27 45 50 100 100 100 100 100 100 100 93 100 100 100 100 100 100 99 90 97 100 97 99 99 100 80 61

GFSSE_250_rhum_102.txt.gz
RH
69 71 83 100 86 60 56 56 48 45 44 38 32 38 96 90 97 90 89 80 70 58 46 28 31 32 31 28 28 36 40 41 37 39 42 44 47 45 42 43 42 43 43
63 58 53 54 83 98 80 61 61 55 40 42 43 34 37 77 87 86 73 61 49 47 36 31 38 36 33 29 31 35 43 45 44 42 43 46 49 48 49 43 42 45 47
64 62 56 51 49 57 73 70 64 57 58 45 46 47 40 36 38 38 40 42 42 39 31 42 47 37 36 36 34 38 44 44 56 45 47 46 49 47 50 49 48 46 46
52 57 55 50 43 42 48 60 70 67 62 65 49 47 49 47 42 39 37 39 47 44 44 49 50 40 42 41 40 36 37 57 58 53 49 43 46 44 43 54 55 49 48
34 39 39 37 38 37 36 45 56 64 66 59 68 59 53 54 51 49 42 42 50 57 53 51 48 46 46 45 42 39 42 47 56 55 54 55 49 51 48 52 62 65 54
27 24 26 27 27 33 34 38 39 44 49 58 58 56 65 85 67 66 57 48 52 61 67 62 52 51 48 48 47 45 44 45 44 48 57 69 58 59 50 50 68 65 63
26 27 30 27 30 31 36 31 28 32 42 41 44 48 51 72 97 100 83 56 52 58 65 71 74 73 64 50 50 48 49 48 45 45 59 58 52 52 70 78 83 80 63
27 27 27 26 27 25 24 21 16 18 25 36 37 37 46 51 64 78 98 75 66 58 58 72 77 78 82 83 61 56 58 55 53 49 52 53 54 53 72 86 80 69 73
71 48 42 32 26 36 30 24 21 21 20 22 22 22 34 45 53 72 85 100 99 95 73 57 69 80 83 94 97 94 82 74 62 57 56 58 59 60 64 99 71 69 81
79 62 51 68 85 99 88 48 28 41 36 25 23 24 35 39 36 40 72 86 100 99 96 86 68 66 78 91 100 100 95 93 89 73 70 68 65 63 70 98 74 61 64
31 94 88 67 96 100 100 99 100 74 99 63 33 24 23 26 31 34 44 65 69 75 66 82 85 71 66 79 94 100 100 95 88 79 71 67 72 71 82 87 100 99 97
30 29 77 79 92 100 100 100 100 100 100 98 79 45 34 22 20 22 34 48 60 68 64 61 66 83 76 72 97 100 100 100 100 81 80 76 77 75 77 100 100 90 91
25 26 24 28 70 90 92 83 100 100 100 100 99 85 39 26 19 16 20 37 56 67 58 59 64 66 74 82 74 96 100 100 100 100 97 91 79 76 74 93 100 100 98
25 26 26 31 28 52 72 74 63 89 95 100 97 75 54 35 21 19 16 18 29 44 61 60 66 64 66 66 78 78 91 99 100 100 100 100 98 97 100 97 100 100 100
28 24 28 35 28 24 27 31 54 75 79 93 98 87 84 67 42 42 34 32 26 26 34 44 54 62 73 76 73 77 89 85 80 93 96 100 100 100 100 100 91 100 99
33 22 25 29 31 27 30 30 24 47 30 47 91 100 100 98 88 70 55 49 39 33 36 32 36 50 69 84 77 72 73 93 94 88 94 92 100 100 100 100 100 100 100
25 24 25 27 29 29 28 29 29 21 34 31 34 79 96 70 72 84 86 75 55 48 39 31 34 46 81 88 91 85 84 84 100 98 100 99 100 100 100 100 99 94 94
16 18 20 20 22 25 27 24 27 27 37 32 37 40 40 36 35 55 70 67 68 68 57 44 33 26 26 51 73 89 96 97 100 100 100 100 100 100 100 100 100 100 98
11 13 14 17 20 23 23 27 26 32 31 38 38 43 53 39 26 28 32 35 62 79 55 48 46 31 30 33 42 68 98 98 100 100 100 100 100 100 100 100 99 98 100
9 10 10 13 18 18 22 25 23 28 38 32 35 42 41 41 38 28 25 23 37 41 29 30 44 40 35 25 28 34 77 100 100 100 100 100 100 100 100 100 100 98 100
5 9 9 11 13 18 18 18 22 26 38 36 35 30 36 41 33 28 33 32 34 34 30 32 43 47 30 30 70 49 95 100 100 100 100 100 100 100 100 100 100 100 100
3 6 9 11 12 12 16 17 22 25 30 37 39 36 38 50 51 29 24 32 33 34 36 31 29 28 26 29 52 88 99 100 87 91 100 100 100 100 100 100 100 100 100
2 3 5 10 12 14 14 18 23 19 25 33 32 30 39 49 52 46 28 34 43 31 38 24 23 27 26 45 60 82 90 100 100 100 96 100 100 100 100 100 100 100 100
2 2 4 4 8 14 14 18 19 20 25 36 36 39 42 56 55 66 63 44 44 56 44 40 39 31 41 63 68 100 100 100 98 100 100 100 100 100 100 100 96 98 96
1 2 3 4 4 6 11 13 17 26 31 36 42 47 48 50 51 55 48 49 53 56 63 47 36 40 49 67 85 100 100 100 89 100 100 100 100 100 99 72 100 98 100
1 2 2 3 3 3 5 10 16 28 32 36 38 44 53 47 32 32 36 35 65 53 64 77 32 25 42 44 88 100 100 100 100 100 100 100 100 100 100 100 100 100 98

GFSSE_250_rhum_105.txt.gz
RH
69 65 68 88 86 94 97 85 68 58 50 40 45 41 33 70 95 93 98 96 84 92 76 62 49 31 32 33 30 28 31 38 41 45 44 45 41 45 43 42 43 46 43
76 72 72 76 99 99 100 99 81 70 66 57 45 42 40 35 76 80 97 96 98 94 60 51 44 33 39 37 34 33 33 36 39 47 52 48 46 47 42 46 46 47 43
61 64 70 66 61 77 78 81 96 93 78 69 64 49 41 43 38 63 79 97 91 64 49 47 39 40 47 41 37 38 37 35 35 44 51 49 46 49 49 44 50 49 52
40 38 42 56 56 56 56 60 64 75 81 69 60 60 54 45 47 43 40 43 50 48 47 48 43 51 58 45 42 41 40 38 37 45 47 49 46 46 55 45 47 64 64
38 40 38 41 51 56 58 56 56 54 54 56 51 53 60 60 49 51 49 46 44 47 45 50 52 50 55 49 48 45 42 42 42 43 43 46 51 46 48 49 58 72 68
26 26 28 29 31 38 48 48 52 49 46 45 47 51 57 56 66 57 52 55 53 52 47 50 57 59 58 52 51 50 47 44 45 46 46 42 50 46 47 51 73 78 72
26 22 23 23 24 28 27 36 41 42 46 49 52 53 62 59 58 68 66 69 91 60 61 55 58 59 61 67 71 70 50 50 49 50 52 52 49 53 54 48 56 71 71
34 68 39 26 26 28 24 25 22 24 45 64 52 51 51 55 58 53 58 60 85 100 95 71 60 62 60 62 64 79 87 64 56 59 61 60 56 56 59 58 58 69 69
31 69 76 80 36 33 30 25 26 30 30 34 38 40 32 37 50 50 53 52 62 81 95 96 73 68 66 65 63 65 82 97 97 90 87 81 72 66 70 72 69 71 96
36 35 68 86 81 63 41 33 31 28 38 32 24 24 24 24 33 47 47 45 53 68 71 78 100 87 86 76 68 66 67 80 98 100 99 83 74 77 76 70 74 79 100
38 33 41 74 96 90 90 67 64 81 61 63 45 29 26 27 23 25 33 41 41 47 63 65 77 99 99 96 91 76 66 70 89 98 97 100 93 79 72 71 72 72 83
52 46 33 38 89 92 80 98 98 78 95 95 73 71 74 72 49 22 22 25 36 46 51 50 57 72 80 86 79 88 86 68 66 80 92 98 100 98 80 76 73 73 86
50 42 47 29 51 83 100 90 98 100 100 100 100 100 99 97 90 62 34 21 26 31 37 41 48 55 70 70 64 60 66 86 90 82 98 100 100 100 100 91 78 85 87
66 41 37 45 33 32 98 83 71 82 100 100 100 100 100 90 81 68 60 43 29 28 25 26 32 54 69 75 71 64 57 66 80 90 88 94 99 100 100 97 83 84 81
54 40 31 33 37 31 28 56 68 78 92 99 96 99 100 100 100 84 79 72 58 47 34 26 24 28 54 75 77 76 76 68 69 74 72 83 89 86 93 99 92 92 93
50 45 34 25 31 34 35 37 27 25 44 74 84 88 100 100 96 97 88 85 90 80 56 63 54 48 40 33 36 63 85 80 79 81 86 82 81 98 100 100 100 100 100
23 25 29 32 20 23 30 36 41 24 26 41 64 62 76 100 86 100 98 100 94 95 78 94 88 89 60 59 48 41 47 71 99 100 98 100 97 97 100 100 100 100 100
14 14 17 16 19 19 25 28 34 41 24 26 35 35 30 57 60 65 99 97 99 90 72 74 89 78 65 65 70 48 60 49 78 100 100 100 100 100 100 100 100 100 100
5 10 10 14 19 19 18 24 40 30 26 27 29 19 24 33 36 34 62 60 84 83 61 50 68 74 52 41 38 58 59 53 43 84 100 100 100 100 100 100 100 100 100
4 4 6 9 14 19 19 20 25 28 26 20 23 23 19 25 33 36 48 46 49 43 38 37 45 47 40 36 56 54 37 39 55 33 38 72 90 100 100 100 100 100 100
3 3 3 6 8 10 14 20 15 20 20 22 19 21 22 29 31 39 43 46 41 36 36 40 45 48 35 38 33 32 28 37 51 56 43 46 54 78 99 100 100 100 100
2 2 2 3 4 6 11 13 16 15 14 20 22 20 23 31 30 33 51 52 32 31 36 41 48 53 42 45 32 30 35 37 49 65 52 40 50 52 95 100 100 100 100
2 2 2 2 3 4 7 10 12 14 15 14 16 18 22 26 34 32 45 48 42 42 51 51 52 65 75 53 40 42 36 36 33 41 60 100 95 100 100 100 100 99 100
2 2 2 2 3 3 4 5 9 10 12 13 15 17 20 23 28 31 33 40 49 50 51 50 56 65 72 82 56 51 44 47 26 41 88 100 100 86 98 100 100 100 100
1 1 2 2 3 3 3 3 4 6 12 13 16 19 18 18 27 31 34 40 44 53 50 52 55 59 69 78 59 54 50 56 49 74 100 100 100 100 100 100 100 100 100
2 2 2 2 2 2 3 3 3 4 6 11 15 22 19 18 22 30 33 34 39 46 48 48 55 67 65 54 56 56 65 70 72 58 93 93 100 100 100 98 94 100 100

GFSSE_250_rhum_108.txt.gz
RH
77 92 87 75 77 63 59 65 71 73 76 77 78 63 56 42 43 50 58 86 94 92 88 97 84 58 50 34 34 35 32 32 34 39 43 52 46 46 44 46 46 44 44
61 65 84 93 77 73 65 69 80 86 77 73 65 60 58 69 47 40 85 64 82 93 85 98 85 55 48 38 38 38 35 37 36 37 43 52 49 44 45 46 47 49 59
51 56 60 76 85 76 71 71 74 83 84 74 70 66 62 58 57 49 41 79 71 72 84 98 78 51 45 40 46 46 38 41 40 39 41 53 50 47 50 58 50 52 67
43 50 59 63 74 84 80 77 78 66 70 69 69 72 71 60 60 55 47 49 50 79 88 81 58 47 44 40 49 52 43 44 44 42 44 44 44 47 57 60 58 68 77
29 31 38 47 61 60 60 64 69 67 59 56 56 56 60 56 51 52 55 52 53 49 47 46 49 49 48 42 47 51 47 45 44 46 46 46 48 47 46 45 49 62 74
26 24 25 31 36 49 60 52 60 65 67 61 57 57 60 57 53 51 55 64 66 58 52 54 52 52 49 52 47 50 49 50 48 46 48 49 52 52 51 51 54 54 56
28 26 29 29 34 37 44 65 66 63 62 68 66 67 73 61 52 49 57 57 70 71 64 58 63 60 59 55 56 52 52 59 59 52 49 49 54 59 60 59 58 63 62
36 31 29 35 27 32 32 30 41 52 65 64 61 61 64 78 67 52 56 80 72 78 74 66 70 93 72 70 61 61 54 52 63 70 74 69 63 69 76 70 70 71 62
40 38 39 29 73 94 66 41 30 24 40 46 48 50 47 63 83 79 69 65 70 64 72 78 71 74 100 100 89 67 65 64 56 60 74 84 91 88 83 83 83 81 65
39 36 39 36 33 100 100 87 69 37 30 27 26 31 42 35 57 67 66 59 55 62 68 73 78 74 68 89 89 100 87 79 68 66 62 67 76 83 79 76 76 82 70
68 75 71 53 33 49 100 100 100 80 52 41 33 26 27 32 29 26 25 30 27 36 53 62 64 68 70 70 74 72 86 100 100 88 81 72 71 86 88 72 70 78 70
77 62 77 84 61 35 70 100 100 100 97 69 73 74 81 98 81 36 27 26 26 23 23 36 47 54 57 73 78 76 74 94 99 94 98 99 83 72 71 91 100 100 94
98 78 59 63 82 56 42 65 84 99 100 99 82 94 100 100 100 100 84 87 48 50 47 25 22 30 38 50 77 86 84 78 84 89 78 69 88 100 98 82 94 100 100
55 70 52 45 63 83 46 39 47 71 100 100 100 99 100 100 100 100 100 100 90 67 70 58 33 23 26 33 51 66 74 91 95 87 92 80 67 73 93 100 100 100 100
62 49 53 49 43 52 74 42 40 45 77 86 93 99 100 100 98 96 100 90 89 86 96 83 62 56 59 41 31 32 35 68 97 99 97 94 98 79 71 85 97 93 98
32 39 35 36 37 37 54 65 50 34 42 54 73 95 100 100 100 95 96 97 93 82 91 88 87 78 68 76 55 36 30 27 35 74 95 100 100 98 96 92 82 87 86
24 28 29 32 30 32 36 42 40 46 40 39 47 73 87 90 100 100 99 97 100 96 96 100 97 97 88 90 84 66 69 68 63 64 56 50 59 100 100 100 100 100 97
11 12 20 19 24 26 26 26 28 29 32 33 40 43 52 50 52 47 99 100 97 100 98 100 100 99 95 86 86 80 76 90 81 62 51 76 88 64 76 99 100 100 100
10 9 8 12 15 15 18 20 21 23 24 28 35 36 48 36 32 28 45 78 79 97 97 96 87 96 100 96 81 68 52 63 73 48 48 59 69 61 63 60 100 100 100
4 5 4 5 9 11 9 13 14 22 20 20 22 30 29 37 39 18 31 46 53 46 64 68 76 83 72 75 86 66 46 46 47 36 37 33 32 40 43 54 53 100 100
2 2 3 2 2 5 8 8 10 11 14 15 15 19 22 27 36 32 23 43 39 38 43 49 51 53 43 54 55 49 55 57 54 45 42 47 41 39 50 60 71 46 48
3 2 2 2 2 2 4 6 6 9 9 10 15 12 16 22 28 21 24 23 24 27 40 45 46 49 52 53 48 47 44 53 68 64 48 60 54 46 57 54 58 62 62
2 2 2 2 2 2 2 3 4 6 7 8 9 11 12 14 22 15 30 23 24 25 30 40 42 52 49 43 43 61 56 64 72 71 73 64 64 54 63 70 63 78 71
2 2 2 2 2 2 3 3 4 4 6 8 8 8 10 12 14 15 21 27 24 34 32 30 36 46 43 53 49 55 56 61 68 69 67 70 76 66 68 62 60 88 100
1 2 2 2 2 2 3 3 3 4 4 5 9 9 7 12 14 16 17 25 27 32 32 33 30 38 43 40 51 52 53 61 64 63 60 77 60 55 62 71 62 72 84
2 2 1 2 2 2 2 3 4 3 3 4 4 4 6 10 17 18 21 21 29 26 26 33 38 36 40 40 39 51 53 53 59 58 56 76 82 54 46 82 82 100 100